Time,TemperatureF,DewpointF,PressureIn,WindDirection,WindDirectionDegrees,WindSpeedMPH,WindSpeedGustMPH,Humidity,HourlyPrecipIn,Conditions,Clouds,dailyrainin,SoftwareType,DateUTC
2013-03-23 00:00:00,14.1,10.4,30.10,North,355,1.0,2.0,85,0.00,,---,0.00,VWS V14.01,2013-03-23 06:00:00,
2013-03-23 00:01:00,14.0,10.6,30.10,NNW,347,1.0,5.0,86,0.00,,---,0.00,VWS V14.01,2013-03-23 06:01:00,
2013-03-23 00:02:00,14.0,10.6,30.10,NNW,346,2.0,3.0,86,0.00,,---,0.00,VWS V14.01,2013-03-23 06:02:00,
2013-03-23 00:03:00,14.0,10.6,30.10,NNW,347,0.0,1.0,86,0.00,,---,0.00,VWS V14.01,2013-03-23 06:03:00,
2013-03-23 00:04:00,14.0,10.6,30.10,NNW,346,2.0,2.0,86,0.00,,---,0.00,VWS V14.01,2013-03-23 06:04:00,
2013-03-23 00:05:00,13.9,10.5,30.10,North,355,4.0,6.0,86,0.00,,---,0.00,VWS V14.01,2013-03-23 06:05:00,
2013-03-23 00:06:00,13.9,10.5,30.09,WNW,292,3.0,7.0,86,0.00,,---,0.00,VWS V14.01,2013-03-23 06:06:00,
2013-03-23 00:07:00,13.9,10.5,30.10,NNW,331,3.0,3.0,86,0.00,,---,0.00,VWS V14.01,2013-03-23 06:07:00,
2013-03-23 00:08:00,13.9,10.5,30.10,WNW,292,0.0,3.0,86,0.00,,---,0.00,VWS V14.01,2013-03-23 06:08:00,
2013-03-23 00:09:00,13.9,10.5,30.10,NNW,341,5.0,5.0,86,0.00,,---,0.00,VWS V14.01,2013-03-23 06:09:00,
2013-03-23 00:10:00,13.9,10.5,30.10,NNE,17,2.0,6.0,86,0.00,,---,0.00,VWS V14.01,2013-03-23 06:10:00,
2013-03-23 00:11:00,13.9,10.5,30.10,North,11,5.0,7.0,86,0.00,,---,0.00,VWS V14.01,2013-03-23 06:11:00,
2013-03-23 00:12:00,13.8,10.4,30.10,North,355,1.0,5.0,86,0.00,,---,0.00,VWS V14.01,2013-03-23 06:12:00,
2013-03-23 00:13:00,13.8,10.4,30.10,North,355,0.0,5.0,86,0.00,,---,0.00,VWS V14.01,2013-03-23 06:13:00,
2013-03-23 00:14:00,13.8,10.4,30.10,North,5,6.0,7.0,86,0.00,,---,0.00,VWS V14.01,2013-03-23 06:14:00,
2013-03-23 00:15:00,13.8,10.4,30.10,North,360,0.0,7.0,86,0.00,,---,0.00,VWS V14.01,2013-03-23 06:15:00,
2013-03-23 00:16:00,13.8,10.4,30.10,North,355,4.0,8.0,86,0.00,,---,0.00,VWS V14.01,2013-03-23 06:16:00,
2013-03-23 00:17:00,13.7,10.3,30.10,NNW,334,5.0,5.0,86,0.00,,---,0.00,VWS V14.01,2013-03-23 06:17:00,
2013-03-23 00:18:00,13.7,10.3,30.10,North,351,1.0,4.0,86,0.00,,---,0.00,VWS V14.01,2013-03-23 06:18:00,
2013-03-23 00:19:00,13.7,10.3,30.10,ENE,69,2.0,4.0,86,0.00,,---,0.00,VWS V14.01,2013-03-23 06:19:00,
2013-03-23 00:20:00,13.7,10.3,30.10,North,351,1.0,5.0,86,0.00,,---,0.00,VWS V14.01,2013-03-23 06:20:00,
2013-03-23 00:21:00,13.7,10.3,30.09,North,351,0.0,1.0,86,0.00,,---,0.00,VWS V14.01,2013-03-23 06:21:00,
2013-03-23 00:22:00,13.7,10.3,30.09,NNW,348,3.0,7.0,86,0.00,,---,0.00,VWS V14.01,2013-03-23 06:22:00,
2013-03-23 00:23:00,13.7,10.3,30.09,NNW,348,3.0,7.0,86,0.00,,---,0.00,VWS V14.01,2013-03-23 06:23:00,
2013-03-23 00:24:00,13.7,10.3,30.09,North,355,2.0,6.0,86,0.00,,---,0.00,VWS V14.01,2013-03-23 06:24:00,
2013-03-23 00:25:00,13.7,10.3,30.09,North,5,1.0,2.0,86,0.00,,---,0.00,VWS V14.01,2013-03-23 06:25:00,
2013-03-23 00:26:00,13.6,10.2,30.09,North,5,1.0,1.0,86,0.00,,---,0.00,VWS V14.01,2013-03-23 06:26:00,
2013-03-23 00:27:00,13.6,10.2,30.09,North,5,0.0,1.0,86,0.00,,---,0.00,VWS V14.01,2013-03-23 06:27:00,
2013-03-23 00:28:00,13.6,10.2,30.09,North,5,0.0,1.0,86,0.00,,---,0.00,VWS V14.01,2013-03-23 06:28:00,
2013-03-23 00:29:00,13.6,10.2,30.09,NNW,348,0.0,5.0,86,0.00,,---,0.00,VWS V14.01,2013-03-23 06:29:00,
2013-03-23 00:30:00,13.6,10.2,30.09,North,349,0.0,3.0,86,0.00,,---,0.00,VWS V14.01,2013-03-23 06:30:00,
2013-03-23 00:31:00,13.6,10.2,30.09,NNW,346,0.0,4.0,86,0.00,,---,0.00,VWS V14.01,2013-03-23 06:31:00,
2013-03-23 00:32:00,13.6,10.2,30.09,NNW,346,0.0,1.0,86,0.00,,---,0.00,VWS V14.01,2013-03-23 06:32:00,
2013-03-23 00:33:00,13.6,10.2,30.09,NNW,346,0.0,1.0,86,0.00,,---,0.00,VWS V14.01,2013-03-23 06:33:00,
2013-03-23 00:34:00,13.5,10.1,30.09,North,5,6.0,6.0,86,0.00,,---,0.00,VWS V14.01,2013-03-23 06:34:00,
2013-03-23 00:35:00,13.5,10.1,30.09,North,5,1.0,6.0,86,0.00,,---,0.00,VWS V14.01,2013-03-23 06:35:00,
2013-03-23 00:36:00,13.5,10.1,30.09,North,5,0.0,1.0,86,0.00,,---,0.00,VWS V14.01,2013-03-23 06:36:00,
2013-03-23 00:37:00,13.5,10.1,30.09,North,5,0.0,0.0,86,0.00,,---,0.00,VWS V14.01,2013-03-23 06:37:00,
2013-03-23 00:38:00,13.5,10.1,30.09,North,5,0.0,0.0,86,0.00,,---,0.00,VWS V14.01,2013-03-23 06:38:00,
2013-03-23 00:39:00,13.5,10.1,30.09,North,5,0.0,2.0,86,0.00,,---,0.00,VWS V14.01,2013-03-23 06:39:00,
2013-03-23 00:40:00,13.5,10.4,30.09,North,9,1.0,2.0,87,0.00,,---,0.00,VWS V14.01,2013-03-23 06:40:00,
2013-03-23 00:41:00,13.5,10.4,30.09,North,9,1.0,1.0,87,0.00,,---,0.00,VWS V14.01,2013-03-23 06:41:00,
2013-03-23 00:42:00,13.5,10.4,30.09,North,9,0.0,1.0,87,0.00,,---,0.00,VWS V14.01,2013-03-23 06:42:00,
2013-03-23 00:43:00,13.5,10.4,30.09,North,9,0.0,1.0,87,0.00,,---,0.00,VWS V14.01,2013-03-23 06:43:00,
2013-03-23 00:44:00,13.5,10.4,30.08,North,9,0.0,0.0,87,0.00,,---,0.00,VWS V14.01,2013-03-23 06:44:00,
2013-03-23 00:45:00,13.5,10.4,30.09,North,9,0.0,0.0,87,0.00,,---,0.00,VWS V14.01,2013-03-23 06:45:00,
2013-03-23 00:46:00,13.5,10.4,30.09,North,9,0.0,1.0,87,0.00,,---,0.00,VWS V14.01,2013-03-23 06:46:00,
2013-03-23 00:47:00,13.5,10.4,30.09,North,9,0.0,2.0,87,0.00,,---,0.00,VWS V14.01,2013-03-23 06:47:00,
2013-03-23 00:48:00,13.5,10.4,30.09,North,9,0.0,2.0,87,0.00,,---,0.00,VWS V14.01,2013-03-23 06:48:00,
2013-03-23 00:49:00,13.5,10.4,30.09,North,9,0.0,0.0,87,0.00,,---,0.00,VWS V14.01,2013-03-23 06:49:00,
2013-03-23 00:50:00,13.5,10.1,30.09,North,5,1.0,4.0,86,0.00,,---,0.00,VWS V14.01,2013-03-23 06:50:00,
2013-03-23 00:51:00,13.5,10.1,30.09,North,5,1.0,2.0,86,0.00,,---,0.00,VWS V14.01,2013-03-23 06:51:00,
2013-03-23 00:52:00,13.5,10.1,30.09,North,5,0.0,1.0,86,0.00,,---,0.00,VWS V14.01,2013-03-23 06:52:00,
2013-03-23 00:53:00,13.5,10.1,30.09,North,5,0.0,1.0,86,0.00,,---,0.00,VWS V14.01,2013-03-23 06:53:00,
2013-03-23 00:54:00,13.5,10.1,30.09,North,5,0.0,2.0,86,0.00,,---,0.00,VWS V14.01,2013-03-23 06:54:00,
2013-03-23 00:55:00,13.5,10.1,30.09,North,5,0.0,1.0,86,0.00,,---,0.00,VWS V14.01,2013-03-23 06:55:00,
2013-03-23 00:56:00,13.5,10.1,30.09,North,5,0.0,0.0,86,0.00,,---,0.00,VWS V14.01,2013-03-23 06:56:00,
2013-03-23 00:57:00,13.5,10.1,30.09,North,5,1.0,1.0,86,0.00,,---,0.00,VWS V14.01,2013-03-23 06:57:00,
2013-03-23 00:58:00,13.5,10.1,30.09,North,5,1.0,1.0,86,0.00,,---,0.00,VWS V14.01,2013-03-23 06:58:00,
2013-03-23 00:59:00,13.5,10.1,30.09,North,5,0.0,2.0,86,0.00,,---,0.00,VWS V14.01,2013-03-23 06:59:00,
2013-03-23 01:00:00,13.5,10.1,30.09,North,5,0.0,0.0,86,0.00,,---,0.00,VWS V14.01,2013-03-23 07:00:00,
2013-03-23 01:01:00,13.4,10.0,30.09,North,5,0.0,0.0,86,0.00,,---,0.00,VWS V14.01,2013-03-23 07:01:00,
2013-03-23 01:02:00,13.5,10.1,30.09,North,5,0.0,0.0,86,0.00,,---,0.00,VWS V14.01,2013-03-23 07:02:00,
2013-03-23 01:03:00,13.5,10.1,30.09,North,5,0.0,0.0,86,0.00,,---,0.00,VWS V14.01,2013-03-23 07:03:00,
2013-03-23 01:04:00,13.4,10.0,30.09,North,5,0.0,0.0,86,0.00,,---,0.00,VWS V14.01,2013-03-23 07:04:00,
2013-03-23 01:05:00,13.4,10.0,30.09,North,5,0.0,0.0,86,0.00,,---,0.00,VWS V14.01,2013-03-23 07:05:00,
2013-03-23 01:06:00,13.4,10.0,30.09,North,5,0.0,0.0,86,0.00,,---,0.00,VWS V14.01,2013-03-23 07:06:00,
2013-03-23 01:07:00,13.4,10.0,30.08,North,5,0.0,0.0,86,0.00,,---,0.00,VWS V14.01,2013-03-23 07:07:00,
2013-03-23 01:08:00,13.4,10.0,30.08,North,5,0.0,0.0,86,0.00,,---,0.00,VWS V14.01,2013-03-23 07:08:00,
2013-03-23 01:09:00,13.4,10.3,30.09,North,5,0.0,0.0,87,0.00,,---,0.00,VWS V14.01,2013-03-23 07:09:00,
2013-03-23 01:10:00,13.4,10.3,30.09,North,9,1.0,2.0,87,0.00,,---,0.00,VWS V14.01,2013-03-23 07:10:00,
2013-03-23 01:11:00,13.4,10.3,30.08,North,9,1.0,2.0,87,0.00,,---,0.00,VWS V14.01,2013-03-23 07:11:00,
2013-03-23 01:12:00,13.4,10.3,30.08,North,9,0.0,1.0,87,0.00,,---,0.00,VWS V14.01,2013-03-23 07:12:00,
2013-03-23 01:13:00,13.4,10.3,30.08,North,9,0.0,1.0,87,0.00,,---,0.00,VWS V14.01,2013-03-23 07:13:00,
2013-03-23 01:14:00,13.4,10.3,30.08,North,9,0.0,1.0,87,0.00,,---,0.00,VWS V14.01,2013-03-23 07:14:00,
2013-03-23 01:15:00,13.4,10.0,30.08,North,9,0.0,1.0,86,0.00,,---,0.00,VWS V14.01,2013-03-23 07:15:00,
2013-03-23 01:16:00,13.4,10.0,30.08,North,9,0.0,0.0,86,0.00,,---,0.00,VWS V14.01,2013-03-23 07:16:00,
2013-03-23 01:17:00,13.4,10.0,30.08,North,9,0.0,0.0,86,0.00,,---,0.00,VWS V14.01,2013-03-23 07:17:00,
2013-03-23 01:18:00,13.4,10.0,30.08,North,9,0.0,0.0,86,0.00,,---,0.00,VWS V14.01,2013-03-23 07:18:00,
2013-03-23 01:19:00,13.4,10.3,30.08,North,9,0.0,0.0,87,0.00,,---,0.00,VWS V14.01,2013-03-23 07:19:00,
2013-03-23 01:20:00,13.4,10.3,30.08,North,9,0.0,0.0,87,0.00,,---,0.00,VWS V14.01,2013-03-23 07:20:00,
2013-03-23 01:21:00,13.3,10.2,30.08,North,9,0.0,0.0,87,0.00,,---,0.00,VWS V14.01,2013-03-23 07:21:00,
2013-03-23 01:22:00,13.3,10.2,30.09,North,9,0.0,2.0,87,0.00,,---,0.00,VWS V14.01,2013-03-23 07:22:00,
2013-03-23 01:24:00,13.3,10.2,30.09,North,9,0.0,0.0,87,0.00,,---,0.00,VWS V14.01,2013-03-23 07:24:00,
2013-03-23 01:25:00,13.3,9.9,30.09,NW,312,0.0,4.0,86,0.00,,---,0.00,VWS V14.01,2013-03-23 07:25:00,
2013-03-23 01:26:00,13.3,9.9,30.09,NNW,346,6.0,6.0,86,0.00,,---,0.00,VWS V14.01,2013-03-23 07:26:00,
2013-03-23 01:27:00,13.3,9.9,30.08,NNW,343,4.0,6.0,86,0.00,,---,0.00,VWS V14.01,2013-03-23 07:27:00,
2013-03-23 01:28:00,13.3,9.9,30.09,NNW,348,5.0,8.0,86,0.00,,---,0.00,VWS V14.01,2013-03-23 07:28:00,
2013-03-23 01:29:00,13.3,9.9,30.08,NNW,343,3.0,4.0,86,0.00,,---,0.00,VWS V14.01,2013-03-23 07:29:00,
2013-03-23 01:30:00,13.3,9.9,30.08,NE,50,1.0,4.0,86,0.00,,---,0.00,VWS V14.01,2013-03-23 07:30:00,
2013-03-23 01:31:00,13.2,9.8,30.08,NE,40,4.0,5.0,86,0.00,,---,0.00,VWS V14.01,2013-03-23 07:31:00,
2013-03-23 01:32:00,13.2,9.8,30.08,NE,40,0.0,4.0,86,0.00,,---,0.00,VWS V14.01,2013-03-23 07:32:00,
2013-03-23 01:33:00,13.2,9.8,30.08,NE,40,1.0,2.0,86,0.00,,---,0.00,VWS V14.01,2013-03-23 07:33:00,
2013-03-23 01:34:00,13.2,9.8,30.08,NE,40,0.0,0.0,86,0.00,,---,0.00,VWS V14.01,2013-03-23 07:34:00,
2013-03-23 01:35:00,13.2,9.8,30.08,NE,40,0.0,0.0,86,0.00,,---,0.00,VWS V14.01,2013-03-23 07:35:00,
2013-03-23 01:36:00,13.2,9.8,30.08,NE,40,0.0,0.0,86,0.00,,---,0.00,VWS V14.01,2013-03-23 07:36:00,
2013-03-23 01:37:00,13.1,9.7,30.08,NE,40,0.0,0.0,86,0.00,,---,0.00,VWS V14.01,2013-03-23 07:37:00,
2013-03-23 01:38:00,13.1,9.7,30.08,NE,40,0.0,0.0,86,0.00,,---,0.00,VWS V14.01,2013-03-23 07:38:00,
2013-03-23 01:39:00,13.2,9.8,30.08,NE,40,0.0,0.0,86,0.00,,---,0.00,VWS V14.01,2013-03-23 07:39:00,
2013-03-23 01:40:00,13.1,9.7,30.08,NE,40,0.0,0.0,86,0.00,,---,0.00,VWS V14.01,2013-03-23 07:40:00,
2013-03-23 01:41:00,13.1,9.7,30.08,NE,40,0.0,1.0,86,0.00,,---,0.00,VWS V14.01,2013-03-23 07:41:00,
2013-03-23 01:44:00,13.1,9.7,30.08,North,5,1.0,1.0,86,0.00,,---,0.00,VWS V14.01,2013-03-23 07:44:00,
2013-03-23 01:45:00,13.0,9.6,30.08,North,5,0.0,2.0,86,0.00,,---,0.00,VWS V14.01,2013-03-23 07:45:00,
2013-03-23 01:46:00,13.0,9.6,30.08,North,5,1.0,2.0,86,0.00,,---,0.00,VWS V14.01,2013-03-23 07:46:00,
2013-03-23 01:47:00,13.0,9.6,30.08,North,5,2.0,2.0,86,0.00,,---,0.00,VWS V14.01,2013-03-23 07:47:00,
2013-03-23 01:48:00,13.0,9.6,30.08,North,9,1.0,4.0,86,0.00,,---,0.00,VWS V14.01,2013-03-23 07:48:00,
2013-03-23 01:49:00,13.0,9.6,30.08,North,5,1.0,2.0,86,0.00,,---,0.00,VWS V14.01,2013-03-23 07:49:00,
2013-03-23 01:50:00,12.8,9.1,30.08,NNE,20,4.0,4.0,85,0.00,,---,0.00,VWS V14.01,2013-03-23 07:50:00,
2013-03-23 01:51:00,12.8,9.4,30.08,NNE,16,2.0,5.0,86,0.00,,---,0.00,VWS V14.01,2013-03-23 07:51:00,
2013-03-23 01:52:00,12.8,9.4,30.08,NNE,24,0.0,6.0,86,0.00,,---,0.00,VWS V14.01,2013-03-23 07:52:00,
2013-03-23 01:53:00,12.7,9.1,30.08,NNE,24,0.0,2.0,85,0.00,,---,0.00,VWS V14.01,2013-03-23 07:53:00,
2013-03-23 01:54:00,12.8,9.1,30.08,NNE,24,1.0,2.0,85,0.00,,---,0.00,VWS V14.01,2013-03-23 07:54:00,
2013-03-23 01:55:00,12.6,9.0,30.08,NNE,31,4.0,6.0,85,0.00,,---,0.00,VWS V14.01,2013-03-23 07:55:00,
2013-03-23 01:56:00,12.6,9.0,30.07,NE,51,2.0,7.0,85,0.00,,---,0.00,VWS V14.01,2013-03-23 07:56:00,
2013-03-23 01:57:00,12.6,9.0,30.08,North,360,0.0,6.0,85,0.00,,---,0.00,VWS V14.01,2013-03-23 07:57:00,
2013-03-23 01:58:00,12.5,8.9,30.08,North,11,1.0,2.0,85,0.00,,---,0.00,VWS V14.01,2013-03-23 07:58:00,
2013-03-23 01:59:00,12.6,9.0,30.08,North,360,2.0,2.0,85,0.00,,---,0.00,VWS V14.01,2013-03-23 07:59:00,
2013-03-23 02:00:00,12.5,8.9,30.07,NE,49,0.0,4.0,85,0.00,,---,0.00,VWS V14.01,2013-03-23 08:00:00,
2013-03-23 02:01:00,12.4,8.8,30.07,ENE,64,0.0,4.0,85,0.00,,---,0.00,VWS V14.01,2013-03-23 08:01:00,
2013-03-23 02:02:00,12.4,8.8,30.07,ENE,65,3.0,6.0,85,0.00,,---,0.00,VWS V14.01,2013-03-23 08:02:00,
2013-03-23 02:03:00,12.4,8.8,30.08,ENE,58,1.0,3.0,85,0.00,,---,0.00,VWS V14.01,2013-03-23 08:03:00,
2013-03-23 02:04:00,12.4,8.8,30.08,ENE,65,0.0,3.0,85,0.00,,---,0.00,VWS V14.01,2013-03-23 08:04:00,
2013-03-23 02:05:00,12.3,8.7,30.08,NE,37,0.0,4.0,85,0.00,,---,0.00,VWS V14.01,2013-03-23 08:05:00,
2013-03-23 02:06:00,12.3,8.7,30.08,NE,37,0.0,2.0,85,0.00,,---,0.00,VWS V14.01,2013-03-23 08:06:00,
2013-03-23 02:07:00,12.2,8.6,30.08,NE,36,0.0,2.0,85,0.00,,---,0.00,VWS V14.01,2013-03-23 08:07:00,
2013-03-23 02:08:00,12.2,8.6,30.08,NE,44,4.0,5.0,85,0.00,,---,0.00,VWS V14.01,2013-03-23 08:08:00,
2013-03-23 02:09:00,12.2,8.6,30.08,NE,37,1.0,2.0,85,0.00,,---,0.00,VWS V14.01,2013-03-23 08:09:00,
2013-03-23 02:10:00,12.1,8.5,30.08,NE,48,4.0,4.0,85,0.00,,---,0.00,VWS V14.01,2013-03-23 08:10:00,
2013-03-23 02:11:00,12.1,8.5,30.09,NE,48,0.0,4.0,85,0.00,,---,0.00,VWS V14.01,2013-03-23 08:11:00,
2013-03-23 02:12:00,12.1,8.5,30.08,NE,48,1.0,1.0,85,0.00,,---,0.00,VWS V14.01,2013-03-23 08:12:00,
2013-03-23 02:13:00,12.1,8.5,30.08,NE,48,0.0,1.0,85,0.00,,---,0.00,VWS V14.01,2013-03-23 08:13:00,
2013-03-23 02:14:00,12.1,8.5,30.08,NE,48,0.0,1.0,85,0.00,,---,0.00,VWS V14.01,2013-03-23 08:14:00,
2013-03-23 02:15:00,12.1,8.5,30.08,NE,48,0.0,0.0,85,0.00,,---,0.00,VWS V14.01,2013-03-23 08:15:00,
2013-03-23 02:16:00,12.0,8.4,30.08,NE,48,1.0,1.0,85,0.00,,---,0.00,VWS V14.01,2013-03-23 08:16:00,
2013-03-23 02:17:00,12.0,8.4,30.08,NE,48,0.0,1.0,85,0.00,,---,0.00,VWS V14.01,2013-03-23 08:17:00,
2013-03-23 02:18:00,12.0,8.4,30.08,NE,48,0.0,0.0,85,0.00,,---,0.00,VWS V14.01,2013-03-23 08:18:00,
2013-03-23 02:19:00,12.0,8.4,30.08,NE,48,0.0,0.0,85,0.00,,---,0.00,VWS V14.01,2013-03-23 08:19:00,
2013-03-23 02:20:00,12.0,8.6,30.08,NE,48,0.0,0.0,86,0.00,,---,0.00,VWS V14.01,2013-03-23 08:20:00,
2013-03-23 02:21:00,11.9,8.5,30.08,NE,48,0.0,0.0,86,0.00,,---,0.00,VWS V14.01,2013-03-23 08:21:00,
2013-03-23 02:22:00,11.9,8.5,30.08,NE,48,0.0,0.0,86,0.00,,---,0.00,VWS V14.01,2013-03-23 08:22:00,
2013-03-23 02:23:00,11.9,8.5,30.08,NE,48,0.0,0.0,86,0.00,,---,0.00,VWS V14.01,2013-03-23 08:23:00,
2013-03-23 02:24:00,11.9,8.5,30.08,NE,48,0.0,0.0,86,0.00,,---,0.00,VWS V14.01,2013-03-23 08:24:00,
2013-03-23 02:25:00,11.9,8.5,30.08,NNW,328,1.0,8.0,86,0.00,,---,0.00,VWS V14.01,2013-03-23 08:25:00,
2013-03-23 02:26:00,11.9,8.5,30.08,NNW,333,5.0,9.0,86,0.00,,---,0.00,VWS V14.01,2013-03-23 08:26:00,
2013-03-23 02:27:00,11.9,8.5,30.08,NNW,333,0.0,5.0,86,0.00,,---,0.00,VWS V14.01,2013-03-23 08:27:00,
2013-03-23 02:28:00,11.9,8.3,30.07,NNW,334,0.0,1.0,85,0.00,,---,0.00,VWS V14.01,2013-03-23 08:28:00,
2013-03-23 02:29:00,11.9,8.3,30.07,NNW,333,0.0,0.0,85,0.00,,---,0.00,VWS V14.01,2013-03-23 08:29:00,
2013-03-23 02:30:00,11.8,8.2,30.07,North,9,7.0,7.0,85,0.00,,---,0.00,VWS V14.01,2013-03-23 08:30:00,
2013-03-23 02:31:00,11.7,8.1,30.07,NE,37,0.0,7.0,85,0.00,,---,0.00,VWS V14.01,2013-03-23 08:31:00,
2013-03-23 02:32:00,11.7,8.1,30.07,NE,37,0.0,0.0,85,0.00,,---,0.00,VWS V14.01,2013-03-23 08:32:00,
2013-03-23 02:33:00,11.7,8.1,30.08,NE,37,0.0,1.0,85,0.00,,---,0.00,VWS V14.01,2013-03-23 08:33:00,
2013-03-23 02:34:00,11.7,8.1,30.08,NE,37,0.0,1.0,85,0.00,,---,0.00,VWS V14.01,2013-03-23 08:34:00,
2013-03-23 02:35:00,11.6,8.0,30.08,NNW,336,3.0,8.0,85,0.00,,---,0.00,VWS V14.01,2013-03-23 08:35:00,
2013-03-23 02:36:00,11.6,7.7,30.08,NW,325,1.0,4.0,84,0.00,,---,0.00,VWS V14.01,2013-03-23 08:36:00,
2013-03-23 02:37:00,11.5,7.6,30.08,NNW,344,4.0,5.0,84,0.00,,---,0.00,VWS V14.01,2013-03-23 08:37:00,
2013-03-23 02:38:00,11.5,7.9,30.08,NNW,344,0.0,4.0,85,0.00,,---,0.00,VWS V14.01,2013-03-23 08:38:00,
2013-03-23 02:39:00,11.5,7.9,30.08,NNW,344,0.0,4.0,85,0.00,,---,0.00,VWS V14.01,2013-03-23 08:39:00,
2013-03-23 02:40:00,11.4,7.8,30.07,NW,306,5.0,6.0,85,0.00,,---,0.00,VWS V14.01,2013-03-23 08:40:00,
2013-03-23 02:41:00,11.4,7.8,30.07,North,5,1.0,8.0,85,0.00,,---,0.00,VWS V14.01,2013-03-23 08:41:00,
2013-03-23 02:42:00,11.3,7.4,30.07,NNW,340,5.0,7.0,84,0.00,,---,0.00,VWS V14.01,2013-03-23 08:42:00,
2013-03-23 02:43:00,11.2,7.3,30.07,WNW,299,6.0,8.0,84,0.00,,---,0.00,VWS V14.01,2013-03-23 08:43:00,
2013-03-23 02:44:00,11.2,7.3,30.07,WNW,302,2.0,8.0,84,0.00,,---,0.00,VWS V14.01,2013-03-23 08:44:00,
2013-03-23 02:45:00,11.1,7.2,30.08,NNW,328,5.0,9.0,84,0.00,,---,0.00,VWS V14.01,2013-03-23 08:45:00,
2013-03-23 02:46:00,11.0,6.9,30.08,NNW,346,10.0,11.0,83,0.00,,---,0.00,VWS V14.01,2013-03-23 08:46:00,
2013-03-23 02:47:00,10.9,6.8,30.08,North,355,6.0,10.0,83,0.00,,---,0.00,VWS V14.01,2013-03-23 08:47:00,
2013-03-23 02:48:00,10.9,6.8,30.08,NW,315,8.0,8.0,83,0.00,,---,0.00,VWS V14.01,2013-03-23 08:48:00,
2013-03-23 02:49:00,10.9,6.8,30.08,NW,315,8.0,8.0,83,0.00,,---,0.00,VWS V14.01,2013-03-23 08:49:00,
2013-03-23 02:50:00,10.7,6.6,30.08,North,350,8.0,9.0,83,0.00,,---,0.00,VWS V14.01,2013-03-23 08:50:00,
2013-03-23 02:51:00,10.6,6.5,30.08,NNW,339,4.0,14.0,83,0.00,,---,0.00,VWS V14.01,2013-03-23 08:51:00,
2013-03-23 02:52:00,10.5,6.4,30.08,NNW,346,5.0,8.0,83,0.00,,---,0.00,VWS V14.01,2013-03-23 08:52:00,
2013-03-23 02:53:00,10.5,6.4,30.07,NW,316,3.0,11.0,83,0.00,,---,0.00,VWS V14.01,2013-03-23 08:53:00,
2013-03-23 02:54:00,10.4,6.3,30.07,NNW,327,8.0,9.0,83,0.00,,---,0.00,VWS V14.01,2013-03-23 08:54:00,
2013-03-23 02:55:00,10.5,6.4,30.07,NW,316,3.0,11.0,83,0.00,,---,0.00,VWS V14.01,2013-03-23 08:55:00,
2013-03-23 02:56:00,10.4,6.3,30.07,NW,309,0.0,6.0,83,0.00,,---,0.00,VWS V14.01,2013-03-23 08:56:00,
2013-03-23 02:57:00,10.3,6.2,30.07,NNW,342,5.0,6.0,83,0.00,,---,0.00,VWS V14.01,2013-03-23 08:57:00,
2013-03-23 02:58:00,10.3,6.4,30.07,NNW,340,7.0,8.0,84,0.00,,---,0.00,VWS V14.01,2013-03-23 08:58:00,
2013-03-23 02:59:00,10.3,6.4,30.07,NNW,340,7.0,8.0,84,0.00,,---,0.00,VWS V14.01,2013-03-23 08:59:00,
2013-03-23 03:00:00,10.2,6.3,30.07,NNW,342,0.0,11.0,84,0.00,,---,0.00,VWS V14.01,2013-03-23 09:00:00,
2013-03-23 03:01:00,10.1,6.2,30.07,North,355,2.0,4.0,84,0.00,,---,0.00,VWS V14.01,2013-03-23 09:01:00,
2013-03-23 03:02:00,10.1,6.2,30.07,NW,325,1.0,11.0,84,0.00,,---,0.00,VWS V14.01,2013-03-23 09:02:00,
2013-03-23 03:03:00,10.0,6.1,30.07,North,5,1.0,7.0,84,0.00,,---,0.00,VWS V14.01,2013-03-23 09:03:00,
2013-03-23 03:04:00,10.0,6.1,30.07,North,355,4.0,6.0,84,0.00,,---,0.00,VWS V14.01,2013-03-23 09:04:00,
2013-03-23 03:05:00,10.0,6.1,30.07,NNE,12,1.0,2.0,84,0.00,,---,0.00,VWS V14.01,2013-03-23 09:05:00,
2013-03-23 03:06:00,10.0,6.1,30.07,NW,311,6.0,6.0,84,0.00,,---,0.00,VWS V14.01,2013-03-23 09:06:00,
2013-03-23 03:07:00,9.9,6.0,30.07,NW,325,7.0,14.0,84,0.00,,---,0.00,VWS V14.01,2013-03-23 09:07:00,
2013-03-23 03:08:00,9.9,6.0,30.07,NNW,332,3.0,8.0,84,0.00,,---,0.00,VWS V14.01,2013-03-23 09:08:00,
2013-03-23 03:09:00,9.9,6.0,30.08,NW,319,2.0,7.0,84,0.00,,---,0.00,VWS V14.01,2013-03-23 09:09:00,
2013-03-23 03:10:00,9.9,6.0,30.08,NNW,331,4.0,4.0,84,0.00,,---,0.00,VWS V14.01,2013-03-23 09:10:00,
2013-03-23 03:11:00,9.8,5.9,30.08,NW,310,3.0,4.0,84,0.00,,---,0.00,VWS V14.01,2013-03-23 09:11:00,
2013-03-23 03:12:00,9.8,5.9,30.08,NW,323,0.0,4.0,84,0.00,,---,0.00,VWS V14.01,2013-03-23 09:12:00,
2013-03-23 03:13:00,9.8,5.9,30.08,NW,311,0.0,3.0,84,0.00,,---,0.00,VWS V14.01,2013-03-23 09:13:00,
2013-03-23 03:14:00,9.8,5.9,30.08,North,355,0.0,7.0,84,0.00,,---,0.00,VWS V14.01,2013-03-23 09:14:00,
2013-03-23 03:15:00,9.8,5.9,30.08,NNW,331,7.0,7.0,84,0.00,,---,0.00,VWS V14.01,2013-03-23 09:15:00,
2013-03-23 03:16:00,9.7,5.8,30.08,WNW,296,1.0,6.0,84,0.00,,---,0.00,VWS V14.01,2013-03-23 09:16:00,
2013-03-23 03:17:00,9.7,5.8,30.08,NE,47,0.0,4.0,84,0.00,,---,0.00,VWS V14.01,2013-03-23 09:17:00,
2013-03-23 03:18:00,9.7,5.8,30.08,North,355,6.0,7.0,84,0.00,,---,0.00,VWS V14.01,2013-03-23 09:18:00,
2013-03-23 03:19:00,9.7,5.8,30.08,NW,323,4.0,7.0,84,0.00,,---,0.00,VWS V14.01,2013-03-23 09:19:00,
2013-03-23 03:20:00,9.7,5.8,30.08,NW,325,4.0,7.0,84,0.00,,---,0.00,VWS V14.01,2013-03-23 09:20:00,
2013-03-23 03:21:00,9.6,5.8,30.08,North,5,4.0,6.0,84,0.00,,---,0.00,VWS V14.01,2013-03-23 09:21:00,
2013-03-23 03:22:00,9.6,5.8,30.08,NNW,348,1.0,4.0,84,0.00,,---,0.00,VWS V14.01,2013-03-23 09:22:00,
2013-03-23 03:23:00,9.6,5.8,30.08,NNW,340,3.0,8.0,84,0.00,,---,0.00,VWS V14.01,2013-03-23 09:23:00,
2013-03-23 03:24:00,9.6,5.8,30.08,NW,317,5.0,10.0,84,0.00,,---,0.00,VWS V14.01,2013-03-23 09:24:00,
2013-03-23 03:25:00,9.6,5.8,30.08,NW,321,7.0,7.0,84,0.00,,---,0.00,VWS V14.01,2013-03-23 09:25:00,
2013-03-23 03:26:00,9.6,5.8,30.09,NNW,329,5.0,7.0,84,0.00,,---,0.00,VWS V14.01,2013-03-23 09:26:00,
2013-03-23 03:27:00,9.6,5.8,30.09,NNW,336,1.0,5.0,84,0.00,,---,0.00,VWS V14.01,2013-03-23 09:27:00,
2013-03-23 03:28:00,9.5,5.7,30.09,NNW,344,1.0,5.0,84,0.00,,---,0.00,VWS V14.01,2013-03-23 09:28:00,
2013-03-23 03:29:00,9.5,5.7,30.08,NNW,344,1.0,1.0,84,0.00,,---,0.00,VWS V14.01,2013-03-23 09:29:00,
2013-03-23 03:30:00,9.5,5.7,30.09,NNW,344,0.0,1.0,84,0.00,,---,0.00,VWS V14.01,2013-03-23 09:30:00,
2013-03-23 03:31:00,9.5,5.7,30.08,NNE,30,0.0,8.0,84,0.00,,---,0.00,VWS V14.01,2013-03-23 09:31:00,
2013-03-23 03:32:00,9.5,5.7,30.08,NNE,30,1.0,1.0,84,0.00,,---,0.00,VWS V14.01,2013-03-23 09:32:00,
2013-03-23 03:33:00,9.5,5.7,30.08,NNW,336,5.0,7.0,84,0.00,,---,0.00,VWS V14.01,2013-03-23 09:33:00,
2013-03-23 03:34:00,9.5,5.7,30.08,NNW,348,4.0,5.0,84,0.00,,---,0.00,VWS V14.01,2013-03-23 09:34:00,
2013-03-23 03:35:00,9.5,5.7,30.08,NNW,336,5.0,5.0,84,0.00,,---,0.00,VWS V14.01,2013-03-23 09:35:00,
2013-03-23 03:36:00,9.5,5.7,30.08,NW,309,1.0,7.0,84,0.00,,---,0.00,VWS V14.01,2013-03-23 09:36:00,
2013-03-23 03:37:00,9.4,5.6,30.08,North,349,1.0,7.0,84,0.00,,---,0.00,VWS V14.01,2013-03-23 09:37:00,
2013-03-23 03:38:00,9.5,5.7,30.08,North,349,0.0,1.0,84,0.00,,---,0.00,VWS V14.01,2013-03-23 09:38:00,
2013-03-23 03:39:00,9.4,5.6,30.08,NNW,348,6.0,8.0,84,0.00,,---,0.00,VWS V14.01,2013-03-23 09:39:00,
2013-03-23 03:40:00,9.5,5.7,30.08,NNW,348,2.0,2.0,84,0.00,,---,0.00,VWS V14.01,2013-03-23 09:40:00,
2013-03-23 03:41:00,9.4,5.6,30.08,NW,306,1.0,8.0,84,0.00,,---,0.00,VWS V14.01,2013-03-23 09:41:00,
2013-03-23 03:42:00,9.4,5.6,30.08,NW,313,0.0,2.0,84,0.00,,---,0.00,VWS V14.01,2013-03-23 09:42:00,
2013-03-23 03:43:00,9.4,5.6,30.08,North,355,2.0,8.0,84,0.00,,---,0.00,VWS V14.01,2013-03-23 09:43:00,
2013-03-23 03:44:00,9.4,5.6,30.08,NNW,338,6.0,8.0,84,0.00,,---,0.00,VWS V14.01,2013-03-23 09:44:00,
2013-03-23 03:45:00,9.4,5.6,30.08,North,360,4.0,8.0,84,0.00,,---,0.00,VWS V14.01,2013-03-23 09:45:00,
2013-03-23 03:46:00,9.4,5.6,30.08,North,351,1.0,6.0,84,0.00,,---,0.00,VWS V14.01,2013-03-23 09:46:00,
2013-03-23 03:47:00,9.4,5.6,30.08,NNW,348,7.0,7.0,84,0.00,,---,0.00,VWS V14.01,2013-03-23 09:47:00,
2013-03-23 03:48:00,9.4,5.6,30.08,NNW,345,0.0,7.0,84,0.00,,---,0.00,VWS V14.01,2013-03-23 09:48:00,
2013-03-23 03:49:00,9.4,5.6,30.08,NNW,345,1.0,1.0,84,0.00,,---,0.00,VWS V14.01,2013-03-23 09:49:00,
2013-03-23 03:50:00,9.4,5.6,30.08,NNW,345,0.0,1.0,84,0.00,,---,0.00,VWS V14.01,2013-03-23 09:50:00,
2013-03-23 03:51:00,9.4,5.6,30.08,North,351,0.0,4.0,84,0.00,,---,0.00,VWS V14.01,2013-03-23 09:51:00,
2013-03-23 03:52:00,9.3,5.4,30.08,NNW,344,0.0,5.0,84,0.00,,---,0.00,VWS V14.01,2013-03-23 09:52:00,
2013-03-23 03:53:00,9.3,5.4,30.08,NNW,344,1.0,2.0,84,0.00,,---,0.00,VWS V14.01,2013-03-23 09:53:00,
2013-03-23 03:54:00,9.3,5.4,30.08,NNW,342,4.0,5.0,84,0.00,,---,0.00,VWS V14.01,2013-03-23 09:54:00,
2013-03-23 03:55:00,9.3,5.4,30.08,North,360,0.0,5.0,84,0.00,,---,0.00,VWS V14.01,2013-03-23 09:55:00,
2013-03-23 03:56:00,9.3,5.4,30.09,WNW,288,3.0,8.0,84,0.00,,---,0.00,VWS V14.01,2013-03-23 09:56:00,
2013-03-23 03:57:00,9.3,5.4,30.09,NNW,332,0.0,5.0,84,0.00,,---,0.00,VWS V14.01,2013-03-23 09:57:00,
2013-03-23 03:58:00,9.3,5.4,30.08,NW,324,2.0,3.0,84,0.00,,---,0.00,VWS V14.01,2013-03-23 09:58:00,
2013-03-23 03:59:00,9.3,5.4,30.08,WNW,302,5.0,8.0,84,0.00,,---,0.00,VWS V14.01,2013-03-23 09:59:00,
2013-03-23 04:00:00,9.3,5.4,30.08,WNW,302,8.0,8.0,84,0.00,,---,0.00,VWS V14.01,2013-03-23 10:00:00,
2013-03-23 04:01:00,9.2,5.4,30.08,NNW,336,0.0,8.0,84,0.00,,---,0.00,VWS V14.01,2013-03-23 10:01:00,
2013-03-23 04:02:00,9.2,5.4,30.09,NW,311,1.0,5.0,84,0.00,,---,0.00,VWS V14.01,2013-03-23 10:02:00,
2013-03-23 04:03:00,9.3,5.4,30.09,North,355,0.0,2.0,84,0.00,,---,0.00,VWS V14.01,2013-03-23 10:03:00,
2013-03-23 04:04:00,9.2,5.4,30.09,North,355,0.0,0.0,84,0.00,,---,0.00,VWS V14.01,2013-03-23 10:04:00,
2013-03-23 04:05:00,9.2,5.4,30.09,North,355,0.0,0.0,84,0.00,,---,0.00,VWS V14.01,2013-03-23 10:05:00,
2013-03-23 04:06:00,9.2,5.4,30.09,North,355,1.0,4.0,84,0.00,,---,0.00,VWS V14.01,2013-03-23 10:06:00,
2013-03-23 04:07:00,9.2,5.6,30.09,North,355,2.0,4.0,85,0.00,,---,0.00,VWS V14.01,2013-03-23 10:07:00,
2013-03-23 04:08:00,9.2,5.6,30.09,North,355,1.0,4.0,85,0.00,,---,0.00,VWS V14.01,2013-03-23 10:08:00,
2013-03-23 04:09:00,9.2,5.6,30.09,North,355,2.0,2.0,85,0.00,,---,0.00,VWS V14.01,2013-03-23 10:09:00,
2013-03-23 04:10:00,9.2,5.6,30.09,North,355,2.0,2.0,85,0.00,,---,0.00,VWS V14.01,2013-03-23 10:10:00,
2013-03-23 04:11:00,9.2,5.6,30.09,North,355,0.0,0.0,85,0.00,,---,0.00,VWS V14.01,2013-03-23 10:11:00,
2013-03-23 04:12:00,9.2,5.6,30.09,North,355,1.0,7.0,85,0.00,,---,0.00,VWS V14.01,2013-03-23 10:12:00,
2013-03-23 04:13:00,9.2,5.6,30.09,North,355,0.0,1.0,85,0.00,,---,0.00,VWS V14.01,2013-03-23 10:13:00,
2013-03-23 04:14:00,9.2,5.6,30.09,North,355,0.0,0.0,85,0.00,,---,0.00,VWS V14.01,2013-03-23 10:14:00,
2013-03-23 04:15:00,9.2,5.6,30.09,North,355,0.0,0.0,85,0.00,,---,0.00,VWS V14.01,2013-03-23 10:15:00,
2013-03-23 04:16:00,9.2,5.6,30.08,NNW,336,4.0,5.0,85,0.00,,---,0.00,VWS V14.01,2013-03-23 10:16:00,
2013-03-23 04:17:00,9.2,5.6,30.08,NNW,336,0.0,4.0,85,0.00,,---,0.00,VWS V14.01,2013-03-23 10:17:00,
2013-03-23 04:18:00,9.2,5.6,30.08,NNW,337,0.0,1.0,85,0.00,,---,0.00,VWS V14.01,2013-03-23 10:18:00,
2013-03-23 04:19:00,9.2,5.6,30.08,NNW,336,1.0,2.0,85,0.00,,---,0.00,VWS V14.01,2013-03-23 10:19:00,
2013-03-23 04:20:00,9.2,5.6,30.08,NNW,336,1.0,2.0,85,0.00,,---,0.00,VWS V14.01,2013-03-23 10:20:00,
2013-03-23 04:21:00,9.1,5.5,30.09,NNW,336,0.0,1.0,85,0.00,,---,0.00,VWS V14.01,2013-03-23 10:21:00,
2013-03-23 04:22:00,9.1,5.5,30.09,NNW,336,0.0,0.0,85,0.00,,---,0.00,VWS V14.01,2013-03-23 10:22:00,
2013-03-23 04:23:00,9.1,5.5,30.08,NNW,336,0.0,0.0,85,0.00,,---,0.00,VWS V14.01,2013-03-23 10:23:00,
2013-03-23 04:24:00,9.1,5.5,30.08,NNW,336,0.0,0.0,85,0.00,,---,0.00,VWS V14.01,2013-03-23 10:24:00,
2013-03-23 04:25:00,9.1,5.5,30.08,NNW,336,0.0,0.0,85,0.00,,---,0.00,VWS V14.01,2013-03-23 10:25:00,
2013-03-23 04:26:00,9.1,5.5,30.08,NNW,336,0.0,0.0,85,0.00,,---,0.00,VWS V14.01,2013-03-23 10:26:00,
2013-03-23 04:27:00,9.1,5.5,30.08,NNW,336,0.0,0.0,85,0.00,,---,0.00,VWS V14.01,2013-03-23 10:27:00,
2013-03-23 04:28:00,9.1,5.5,30.08,NE,36,1.0,6.0,85,0.00,,---,0.00,VWS V14.01,2013-03-23 10:28:00,
2013-03-23 04:29:00,9.1,5.5,30.08,NE,36,0.0,2.0,85,0.00,,---,0.00,VWS V14.01,2013-03-23 10:29:00,
2013-03-23 04:30:00,9.1,5.5,30.08,NE,36,0.0,2.0,85,0.00,,---,0.00,VWS V14.01,2013-03-23 10:30:00,
2013-03-23 04:31:00,9.1,5.5,30.08,NE,36,0.0,1.0,85,0.00,,---,0.00,VWS V14.01,2013-03-23 10:31:00,
2013-03-23 04:32:00,9.1,5.5,30.08,NE,36,0.0,0.0,85,0.00,,---,0.00,VWS V14.01,2013-03-23 10:32:00,
2013-03-23 04:33:00,9.1,5.5,30.08,NE,36,0.0,1.0,85,0.00,,---,0.00,VWS V14.01,2013-03-23 10:33:00,
2013-03-23 04:34:00,9.1,5.5,30.08,NE,36,0.0,1.0,85,0.00,,---,0.00,VWS V14.01,2013-03-23 10:34:00,
2013-03-23 04:35:00,9.1,5.5,30.08,NE,36,0.0,1.0,85,0.00,,---,0.00,VWS V14.01,2013-03-23 10:35:00,
2013-03-23 04:36:00,9.1,5.5,30.08,NE,36,0.0,0.0,85,0.00,,---,0.00,VWS V14.01,2013-03-23 10:36:00,
2013-03-23 04:37:00,9.1,5.5,30.08,NE,36,0.0,0.0,85,0.00,,---,0.00,VWS V14.01,2013-03-23 10:37:00,
2013-03-23 04:38:00,9.1,5.5,30.09,NE,36,0.0,0.0,85,0.00,,---,0.00,VWS V14.01,2013-03-23 10:38:00,
2013-03-23 04:39:00,9.1,5.5,30.09,NE,36,0.0,0.0,85,0.00,,---,0.00,VWS V14.01,2013-03-23 10:39:00,
2013-03-23 04:40:00,9.1,5.5,30.09,NE,36,0.0,0.0,85,0.00,,---,0.00,VWS V14.01,2013-03-23 10:40:00,
2013-03-23 04:41:00,9.1,5.5,30.09,NE,36,0.0,0.0,85,0.00,,---,0.00,VWS V14.01,2013-03-23 10:41:00,
2013-03-23 04:42:00,9.1,5.5,30.08,NE,36,0.0,2.0,85,0.00,,---,0.00,VWS V14.01,2013-03-23 10:42:00,
2013-03-23 04:43:00,9.1,5.5,30.08,NE,36,0.0,1.0,85,0.00,,---,0.00,VWS V14.01,2013-03-23 10:43:00,
2013-03-23 04:44:00,9.1,5.5,30.08,NE,36,0.0,1.0,85,0.00,,---,0.00,VWS V14.01,2013-03-23 10:44:00,
2013-03-23 04:45:00,9.1,5.5,30.08,NE,36,0.0,0.0,85,0.00,,---,0.00,VWS V14.01,2013-03-23 10:45:00,
2013-03-23 04:46:00,9.1,5.5,30.08,NE,36,0.0,1.0,85,0.00,,---,0.00,VWS V14.01,2013-03-23 10:46:00,
2013-03-23 04:47:00,9.1,5.5,30.08,NNE,15,4.0,4.0,85,0.00,,---,0.00,VWS V14.01,2013-03-23 10:47:00,
2013-03-23 04:48:00,9.1,5.5,30.08,WNW,285,2.0,4.0,85,0.00,,---,0.00,VWS V14.01,2013-03-23 10:48:00,
2013-03-23 04:49:00,9.1,5.5,30.08,West,271,2.0,4.0,85,0.00,,---,0.00,VWS V14.01,2013-03-23 10:49:00,
2013-03-23 04:50:00,9.1,5.5,30.08,West,271,2.0,4.0,85,0.00,,---,0.00,VWS V14.01,2013-03-23 10:50:00,
2013-03-23 04:51:00,9.1,5.5,30.09,West,271,0.0,1.0,85,0.00,,---,0.00,VWS V14.01,2013-03-23 10:51:00,
2013-03-23 04:52:00,9.1,5.5,30.09,NNE,12,4.0,4.0,85,0.00,,---,0.00,VWS V14.01,2013-03-23 10:52:00,
2013-03-23 04:53:00,9.1,5.5,30.09,North,11,0.0,4.0,85,0.00,,---,0.00,VWS V14.01,2013-03-23 10:53:00,
2013-03-23 04:54:00,9.1,5.5,30.08,North,11,0.0,0.0,85,0.00,,---,0.00,VWS V14.01,2013-03-23 10:54:00,
2013-03-23 04:55:00,9.1,5.5,30.08,NNE,13,2.0,2.0,85,0.00,,---,0.00,VWS V14.01,2013-03-23 10:55:00,
2013-03-23 04:56:00,9.1,5.5,30.08,North,11,0.0,0.0,85,0.00,,---,0.00,VWS V14.01,2013-03-23 10:56:00,
2013-03-23 04:57:00,9.1,5.5,30.08,ENE,64,0.0,4.0,85,0.00,,---,0.00,VWS V14.01,2013-03-23 10:57:00,
2013-03-23 04:58:00,9.1,5.5,30.08,ENE,64,2.0,2.0,85,0.00,,---,0.00,VWS V14.01,2013-03-23 10:58:00,
2013-03-23 04:59:00,9.1,5.5,30.08,ENE,57,0.0,4.0,85,0.00,,---,0.00,VWS V14.01,2013-03-23 10:59:00,
2013-03-23 05:00:00,9.1,5.5,30.08,ENE,57,0.0,0.0,85,0.00,,---,0.00,VWS V14.01,2013-03-23 11:00:00,
2013-03-23 05:01:00,9.1,5.5,30.08,ENE,57,0.0,0.0,85,0.00,,---,0.00,VWS V14.01,2013-03-23 11:01:00,
2013-03-23 05:02:00,9.0,5.4,30.09,ENE,57,0.0,0.0,85,0.00,,---,0.00,VWS V14.01,2013-03-23 11:02:00,
2013-03-23 05:03:00,9.0,5.4,30.09,ENE,57,0.0,1.0,85,0.00,,---,0.00,VWS V14.01,2013-03-23 11:03:00,
2013-03-23 05:04:00,9.0,5.4,30.09,NE,39,4.0,5.0,85,0.00,,---,0.00,VWS V14.01,2013-03-23 11:04:00,
2013-03-23 05:05:00,9.0,5.4,30.09,NE,39,1.0,4.0,85,0.00,,---,0.00,VWS V14.01,2013-03-23 11:05:00,
2013-03-23 05:06:00,9.0,5.4,30.09,NE,39,2.0,4.0,85,0.00,,---,0.00,VWS V14.01,2013-03-23 11:06:00,
2013-03-23 05:07:00,9.0,5.4,30.09,NNW,338,0.0,7.0,85,0.00,,---,0.00,VWS V14.01,2013-03-23 11:07:00,
2013-03-23 05:08:00,9.0,5.4,30.09,NNW,344,1.0,6.0,85,0.00,,---,0.00,VWS V14.01,2013-03-23 11:08:00,
2013-03-23 05:09:00,9.0,5.4,30.09,North,5,0.0,2.0,85,0.00,,---,0.00,VWS V14.01,2013-03-23 11:09:00,
2013-03-23 05:10:00,9.0,5.4,30.09,North,5,0.0,0.0,85,0.00,,---,0.00,VWS V14.01,2013-03-23 11:10:00,
2013-03-23 05:11:00,9.0,5.4,30.09,North,5,0.0,0.0,85,0.00,,---,0.00,VWS V14.01,2013-03-23 11:11:00,
2013-03-23 05:12:00,9.0,5.4,30.09,NNE,13,0.0,2.0,85,0.00,,---,0.00,VWS V14.01,2013-03-23 11:12:00,
2013-03-23 05:13:00,9.0,5.4,30.09,NNE,13,0.0,0.0,85,0.00,,---,0.00,VWS V14.01,2013-03-23 11:13:00,
2013-03-23 05:14:00,8.9,5.3,30.09,NNE,13,0.0,0.0,85,0.00,,---,0.00,VWS V14.01,2013-03-23 11:14:00,
2013-03-23 05:15:00,9.0,5.4,30.09,NNE,13,0.0,0.0,85,0.00,,---,0.00,VWS V14.01,2013-03-23 11:15:00,
2013-03-23 05:16:00,9.0,5.4,30.09,NNE,13,0.0,0.0,85,0.00,,---,0.00,VWS V14.01,2013-03-23 11:16:00,
2013-03-23 05:17:00,8.9,5.3,30.09,NNE,13,2.0,2.0,85,0.00,,---,0.00,VWS V14.01,2013-03-23 11:17:00,
2013-03-23 05:18:00,8.9,5.3,30.09,NNE,16,1.0,2.0,85,0.00,,---,0.00,VWS V14.01,2013-03-23 11:18:00,
2013-03-23 05:19:00,8.9,5.3,30.09,North,5,0.0,5.0,85,0.00,,---,0.00,VWS V14.01,2013-03-23 11:19:00,
2013-03-23 05:20:00,8.9,5.3,30.09,North,5,0.0,0.0,85,0.00,,---,0.00,VWS V14.01,2013-03-23 11:20:00,
2013-03-23 05:21:00,8.9,5.3,30.09,North,5,0.0,0.0,85,0.00,,---,0.00,VWS V14.01,2013-03-23 11:21:00,
2013-03-23 05:22:00,8.9,5.3,30.09,North,5,1.0,3.0,85,0.00,,---,0.00,VWS V14.01,2013-03-23 11:22:00,
2013-03-23 05:23:00,8.9,5.1,30.09,North,355,0.0,4.0,84,0.00,,---,0.00,VWS V14.01,2013-03-23 11:23:00,
2013-03-23 05:24:00,8.8,5.0,30.09,North,355,0.0,1.0,84,0.00,,---,0.00,VWS V14.01,2013-03-23 11:24:00,
2013-03-23 05:25:00,8.8,5.0,30.09,North,11,2.0,6.0,84,0.00,,---,0.00,VWS V14.01,2013-03-23 11:25:00,
2013-03-23 05:26:00,8.8,5.0,30.09,North,11,3.0,6.0,84,0.00,,---,0.00,VWS V14.01,2013-03-23 11:26:00,
2013-03-23 05:27:00,8.8,5.0,30.09,North,9,1.0,1.0,84,0.00,,---,0.00,VWS V14.01,2013-03-23 11:27:00,
2013-03-23 05:28:00,8.8,5.0,30.09,North,5,2.0,4.0,84,0.00,,---,0.00,VWS V14.01,2013-03-23 11:28:00,
2013-03-23 05:29:00,8.7,4.9,30.09,North,5,4.0,7.0,84,0.00,,---,0.00,VWS V14.01,2013-03-23 11:29:00,
2013-03-23 05:30:00,8.7,4.9,30.08,NNW,342,0.0,6.0,84,0.00,,---,0.00,VWS V14.01,2013-03-23 11:30:00,
2013-03-23 05:31:00,8.7,4.9,30.08,NNW,342,0.0,6.0,84,0.00,,---,0.00,VWS V14.01,2013-03-23 11:31:00,
2013-03-23 05:32:00,8.7,4.9,30.09,NNE,12,2.0,6.0,84,0.00,,---,0.00,VWS V14.01,2013-03-23 11:32:00,
2013-03-23 05:33:00,8.6,4.8,30.09,NNW,329,2.0,3.0,84,0.00,,---,0.00,VWS V14.01,2013-03-23 11:33:00,
2013-03-23 05:34:00,8.6,4.8,30.09,NNE,20,3.0,4.0,84,0.00,,---,0.00,VWS V14.01,2013-03-23 11:34:00,
2013-03-23 05:35:00,8.6,4.8,30.09,NW,316,0.0,4.0,84,0.00,,---,0.00,VWS V14.01,2013-03-23 11:35:00,
2013-03-23 05:36:00,8.6,4.8,30.09,NW,317,0.0,2.0,84,0.00,,---,0.00,VWS V14.01,2013-03-23 11:36:00,
2013-03-23 05:37:00,8.6,4.8,30.09,NW,316,0.0,4.0,84,0.00,,---,0.00,VWS V14.01,2013-03-23 11:37:00,
2013-03-23 05:38:00,8.6,4.8,30.09,NW,317,0.0,0.0,84,0.00,,---,0.00,VWS V14.01,2013-03-23 11:38:00,
2013-03-23 05:39:00,8.5,4.7,30.09,NW,317,0.0,0.0,84,0.00,,---,0.00,VWS V14.01,2013-03-23 11:39:00,
2013-03-23 05:40:00,8.5,4.7,30.09,NW,317,0.0,0.0,84,0.00,,---,0.00,VWS V14.01,2013-03-23 11:40:00,
2013-03-23 05:41:00,8.5,4.7,30.09,NW,317,0.0,0.0,84,0.00,,---,0.00,VWS V14.01,2013-03-23 11:41:00,
2013-03-23 05:42:00,8.5,4.7,30.09,NW,317,0.0,0.0,84,0.00,,---,0.00,VWS V14.01,2013-03-23 11:42:00,
2013-03-23 05:43:00,8.5,4.7,30.09,NNW,346,1.0,4.0,84,0.00,,---,0.00,VWS V14.01,2013-03-23 11:43:00,
2013-03-23 05:44:00,8.5,4.7,30.08,WNW,282,1.0,5.0,84,0.00,,---,0.00,VWS V14.01,2013-03-23 11:44:00,
2013-03-23 05:45:00,8.5,4.7,30.08,NNW,344,9.0,9.0,84,0.00,,---,0.00,VWS V14.01,2013-03-23 11:45:00,
2013-03-23 05:46:00,8.5,4.7,30.08,NNW,334,6.0,9.0,84,0.00,,---,0.00,VWS V14.01,2013-03-23 11:46:00,
2013-03-23 05:47:00,8.5,4.7,30.08,NNW,344,9.0,9.0,84,0.00,,---,0.00,VWS V14.01,2013-03-23 11:47:00,
2013-03-23 05:48:00,8.4,4.6,30.09,NNW,346,0.0,5.0,84,0.00,,---,0.00,VWS V14.01,2013-03-23 11:48:00,
2013-03-23 05:49:00,8.4,4.6,30.09,NNW,346,0.0,1.0,84,0.00,,---,0.00,VWS V14.01,2013-03-23 11:49:00,
2013-03-23 05:50:00,8.4,4.6,30.09,WNW,292,6.0,6.0,84,0.00,,---,0.00,VWS V14.01,2013-03-23 11:50:00,
2013-03-23 05:51:00,8.4,4.6,30.09,NNW,336,1.0,6.0,84,0.00,,---,0.00,VWS V14.01,2013-03-23 11:51:00,
2013-03-23 05:52:00,8.3,4.5,30.09,WNW,292,3.0,6.0,84,0.00,,---,0.00,VWS V14.01,2013-03-23 11:52:00,
2013-03-23 05:53:00,8.3,4.5,30.09,NNW,333,2.0,4.0,84,0.00,,---,0.00,VWS V14.01,2013-03-23 11:53:00,
2013-03-23 05:54:00,8.3,4.5,30.09,NNW,344,1.0,4.0,84,0.00,,---,0.00,VWS V14.01,2013-03-23 11:54:00,
2013-03-23 05:55:00,8.3,4.5,30.09,NNW,337,0.0,5.0,84,0.00,,---,0.00,VWS V14.01,2013-03-23 11:55:00,
2013-03-23 05:56:00,8.3,4.5,30.09,NNW,344,1.0,6.0,84,0.00,,---,0.00,VWS V14.01,2013-03-23 11:56:00,
2013-03-23 05:57:00,8.3,4.5,30.09,NNW,338,0.0,0.0,84,0.00,,---,0.00,VWS V14.01,2013-03-23 11:57:00,
2013-03-23 05:58:00,8.3,4.5,30.09,NNW,343,0.0,1.0,84,0.00,,---,0.00,VWS V14.01,2013-03-23 11:58:00,
2013-03-23 05:59:00,8.3,4.5,30.10,NNW,343,0.0,1.0,84,0.00,,---,0.00,VWS V14.01,2013-03-23 11:59:00,
2013-03-23 06:00:00,8.3,4.5,30.10,NNE,32,1.0,6.0,84,0.00,,---,0.00,VWS V14.01,2013-03-23 12:00:00,
2013-03-23 06:01:00,8.2,4.4,30.10,NNW,333,2.0,6.0,84,0.00,,---,0.00,VWS V14.01,2013-03-23 12:01:00,
2013-03-23 06:02:00,8.2,4.4,30.10,NNW,342,1.0,1.0,84,0.00,,---,0.00,VWS V14.01,2013-03-23 12:02:00,
2013-03-23 06:03:00,8.2,4.4,30.10,NNW,344,5.0,9.0,84,0.00,,---,0.00,VWS V14.01,2013-03-23 12:03:00,
2013-03-23 06:04:00,8.2,4.4,30.09,NW,323,0.0,6.0,84,0.00,,---,0.00,VWS V14.01,2013-03-23 12:04:00,
2013-03-23 06:05:00,8.2,4.4,30.09,North,355,1.0,2.0,84,0.00,,---,0.00,VWS V14.01,2013-03-23 12:05:00,
2013-03-23 06:06:00,8.2,4.4,30.09,North,355,1.0,2.0,84,0.00,,---,0.00,VWS V14.01,2013-03-23 12:06:00,
2013-03-23 06:07:00,8.2,4.4,30.09,North,355,0.0,1.0,84,0.00,,---,0.00,VWS V14.01,2013-03-23 12:07:00,
2013-03-23 06:08:00,8.1,4.3,30.10,North,360,2.0,8.0,84,0.00,,---,0.00,VWS V14.01,2013-03-23 12:08:00,
2013-03-23 06:09:00,8.1,4.3,30.10,North,11,4.0,6.0,84,0.00,,---,0.00,VWS V14.01,2013-03-23 12:09:00,
2013-03-23 06:10:00,8.1,4.3,30.10,North,5,7.0,9.0,84,0.00,,---,0.00,VWS V14.01,2013-03-23 12:10:00,
2013-03-23 06:11:00,8.1,4.3,30.10,NW,323,7.0,7.0,84,0.00,,---,0.00,VWS V14.01,2013-03-23 12:11:00,
2013-03-23 06:12:00,8.1,4.3,30.10,NW,313,2.0,7.0,84,0.00,,---,0.00,VWS V14.01,2013-03-23 12:12:00,
2013-03-23 06:13:00,8.1,4.3,30.10,NNW,344,9.0,10.0,84,0.00,,---,0.00,VWS V14.01,2013-03-23 12:13:00,
2013-03-23 06:14:00,8.1,4.3,30.10,NNW,345,5.0,9.0,84,0.00,,---,0.00,VWS V14.01,2013-03-23 12:14:00,
2013-03-23 06:15:00,8.1,4.3,30.10,NNW,339,4.0,7.0,84,0.00,,---,0.00,VWS V14.01,2013-03-23 12:15:00,
2013-03-23 06:16:00,8.1,4.3,30.10,WNW,292,3.0,8.0,84,0.00,,---,0.00,VWS V14.01,2013-03-23 12:16:00,
2013-03-23 06:17:00,8.1,4.3,30.10,NW,304,6.0,8.0,84,0.00,,---,0.00,VWS V14.01,2013-03-23 12:17:00,
2013-03-23 06:18:00,8.1,4.3,30.10,NNE,13,2.0,2.0,84,0.00,,---,0.00,VWS V14.01,2013-03-23 12:18:00,
2013-03-23 06:19:00,8.1,4.3,30.10,North,5,4.0,9.0,84,0.00,,---,0.00,VWS V14.01,2013-03-23 12:19:00,
2013-03-23 06:20:00,8.1,4.3,30.10,NNW,342,3.0,8.0,84,0.00,,---,0.00,VWS V14.01,2013-03-23 12:20:00,
2013-03-23 06:21:00,8.1,4.3,30.10,NNW,345,3.0,9.0,84,0.00,,---,0.00,VWS V14.01,2013-03-23 12:21:00,
2013-03-23 06:22:00,8.1,4.3,30.10,NNW,342,3.0,9.0,84,0.00,,---,0.00,VWS V14.01,2013-03-23 12:22:00,
2013-03-23 06:23:00,8.0,4.2,30.10,NNW,348,1.0,3.0,84,0.00,,---,0.00,VWS V14.01,2013-03-23 12:23:00,
2013-03-23 06:24:00,8.0,4.2,30.10,North,5,6.0,7.0,84,0.00,,---,0.00,VWS V14.01,2013-03-23 12:24:00,
2013-03-23 06:25:00,8.0,4.2,30.10,NNE,26,6.0,9.0,84,0.00,,---,0.00,VWS V14.01,2013-03-23 12:25:00,
2013-03-23 06:26:00,8.0,4.2,30.10,North,5,1.0,6.0,84,0.00,,---,0.00,VWS V14.01,2013-03-23 12:26:00,
2013-03-23 06:27:00,8.0,4.2,30.10,North,5,1.0,6.0,84,0.00,,---,0.00,VWS V14.01,2013-03-23 12:27:00,
2013-03-23 06:28:00,8.0,4.2,30.10,WNW,296,0.0,6.0,84,0.00,,---,0.00,VWS V14.01,2013-03-23 12:28:00,
2013-03-23 06:29:00,8.0,4.2,30.10,NNW,346,9.0,9.0,84,0.00,,---,0.00,VWS V14.01,2013-03-23 12:29:00,
2013-03-23 06:30:00,8.0,4.2,30.10,NNW,343,4.0,9.0,84,0.00,,---,0.00,VWS V14.01,2013-03-23 12:30:00,
2013-03-23 06:32:00,8.0,4.2,30.10,North,360,6.0,6.0,84,0.00,,---,0.00,VWS V14.01,2013-03-23 12:32:00,
2013-03-23 06:33:00,8.0,4.2,30.10,North,355,0.0,5.0,84,0.00,,---,0.00,VWS V14.01,2013-03-23 12:33:00,
2013-03-23 06:36:00,8.0,4.2,30.10,NNE,13,6.0,8.0,84,0.00,,---,0.00,VWS V14.01,2013-03-23 12:36:00,
2013-03-23 06:37:00,8.0,4.2,30.11,NNW,338,2.0,6.0,84,0.00,,---,0.00,VWS V14.01,2013-03-23 12:37:00,
2013-03-23 06:38:00,8.0,4.2,30.10,NNE,13,6.0,8.0,84,0.00,,---,0.00,VWS V14.01,2013-03-23 12:38:00,
2013-03-23 06:39:00,7.9,4.1,30.11,NW,319,3.0,14.0,84,0.00,,---,0.00,VWS V14.01,2013-03-23 12:39:00,
2013-03-23 06:40:00,8.0,4.2,30.10,WNW,283,6.0,7.0,84,0.00,,---,0.00,VWS V14.01,2013-03-23 12:40:00,
2013-03-23 06:41:00,7.9,4.1,30.10,WNW,303,10.0,10.0,84,0.00,,---,0.00,VWS V14.01,2013-03-23 12:41:00,
2013-03-23 06:42:00,7.9,4.1,30.11,NNW,343,1.0,10.0,84,0.00,,---,0.00,VWS V14.01,2013-03-23 12:42:00,
2013-03-23 06:43:00,7.9,4.1,30.10,WNW,303,10.0,10.0,84,0.00,,---,0.00,VWS V14.01,2013-03-23 12:43:00,
2013-03-23 06:44:00,7.9,4.1,30.11,North,5,2.0,9.0,84,0.00,,---,0.00,VWS V14.01,2013-03-23 12:44:00,
2013-03-23 06:45:00,7.9,4.1,30.11,North,5,2.0,4.0,84,0.00,,---,0.00,VWS V14.01,2013-03-23 12:45:00,
2013-03-23 06:46:00,7.9,4.1,30.11,NNW,331,0.0,8.0,84,0.00,,---,0.00,VWS V14.01,2013-03-23 12:46:00,
2013-03-23 06:47:00,7.9,4.1,30.11,NNW,333,2.0,2.0,84,0.00,,---,0.00,VWS V14.01,2013-03-23 12:47:00,
2013-03-23 06:48:00,7.9,4.1,30.11,NNW,331,0.0,8.0,84,0.00,,---,0.00,VWS V14.01,2013-03-23 12:48:00,
2013-03-23 06:49:00,7.8,4.0,30.11,ESE,107,2.0,5.0,84,0.00,,---,0.00,VWS V14.01,2013-03-23 12:49:00,
2013-03-23 06:50:00,7.9,4.1,30.11,ESE,107,1.0,2.0,84,0.00,,---,0.00,VWS V14.01,2013-03-23 12:50:00,
2013-03-23 06:51:00,7.8,4.0,30.11,South,180,0.0,2.0,84,0.00,,---,0.00,VWS V14.01,2013-03-23 12:51:00,
2013-03-23 06:52:00,7.8,4.0,30.11,NNW,345,1.0,6.0,84,0.00,,---,0.00,VWS V14.01,2013-03-23 12:52:00,
2013-03-23 06:53:00,7.8,4.0,30.11,South,180,0.0,2.0,84,0.00,,---,0.00,VWS V14.01,2013-03-23 12:53:00,
2013-03-23 06:54:00,7.8,4.0,30.11,NNW,348,1.0,2.0,84,0.00,,---,0.00,VWS V14.01,2013-03-23 12:54:00,
2013-03-23 06:55:00,7.8,4.0,30.11,NNE,19,3.0,7.0,84,0.00,,---,0.00,VWS V14.01,2013-03-23 12:55:00,
2013-03-23 06:56:00,7.8,4.0,30.11,NNW,333,1.0,8.0,84,0.00,,---,0.00,VWS V14.01,2013-03-23 12:56:00,
2013-03-23 06:57:00,7.8,4.0,30.11,North,9,0.0,6.0,84,0.00,,---,0.00,VWS V14.01,2013-03-23 12:57:00,
2013-03-23 06:58:00,7.8,4.0,30.11,NNW,333,1.0,8.0,84,0.00,,---,0.00,VWS V14.01,2013-03-23 12:58:00,
2013-03-23 06:59:00,7.8,4.0,30.11,NNW,344,0.0,2.0,84,0.00,,---,0.00,VWS V14.01,2013-03-23 12:59:00,
2013-03-23 07:00:00,7.8,4.0,30.11,NNW,343,5.0,8.0,84,0.00,,---,0.00,VWS V14.01,2013-03-23 13:00:00,
2013-03-23 07:01:00,7.8,4.0,30.11,NW,324,4.0,9.0,84,0.00,,---,0.00,VWS V14.01,2013-03-23 13:01:00,
2013-03-23 07:02:00,7.8,4.0,30.11,North,5,0.0,6.0,84,0.00,,---,0.00,VWS V14.01,2013-03-23 13:02:00,
2013-03-23 07:03:00,7.8,4.0,30.11,NW,324,4.0,9.0,84,0.00,,---,0.00,VWS V14.01,2013-03-23 13:03:00,
2013-03-23 07:04:00,7.8,4.0,30.11,NW,323,4.0,5.0,84,0.00,,---,0.00,VWS V14.01,2013-03-23 13:04:00,
2013-03-23 07:05:00,7.8,4.0,30.11,NNW,346,7.0,8.0,84,0.00,,---,0.00,VWS V14.01,2013-03-23 13:05:00,
2013-03-23 07:06:00,7.8,4.0,30.11,NNW,332,7.0,7.0,84,0.00,,---,0.00,VWS V14.01,2013-03-23 13:06:00,
2013-03-23 07:07:00,7.8,4.0,30.11,NNW,332,4.0,7.0,84,0.00,,---,0.00,VWS V14.01,2013-03-23 13:07:00,
2013-03-23 07:08:00,7.8,4.0,30.11,NNW,332,7.0,7.0,84,0.00,,---,0.00,VWS V14.01,2013-03-23 13:08:00,
2013-03-23 07:09:00,7.8,4.0,30.11,WNW,296,2.0,12.0,84,0.00,,---,0.00,VWS V14.01,2013-03-23 13:09:00,
2013-03-23 07:10:00,7.8,4.0,30.11,NW,324,1.0,2.0,84,0.00,,---,0.00,VWS V14.01,2013-03-23 13:10:00,
2013-03-23 07:11:00,7.8,4.0,30.11,NNW,327,3.0,3.0,84,0.00,,---,0.00,VWS V14.01,2013-03-23 13:11:00,
2013-03-23 07:12:00,7.8,4.0,30.11,North,350,6.0,8.0,84,0.00,,---,0.00,VWS V14.01,2013-03-23 13:12:00,
2013-03-23 07:13:00,7.8,4.0,30.11,NNW,327,3.0,3.0,84,0.00,,---,0.00,VWS V14.01,2013-03-23 13:13:00,
2013-03-23 07:14:00,7.8,4.0,30.12,NNW,346,0.0,4.0,84,0.00,,---,0.00,VWS V14.01,2013-03-23 13:14:00,
2013-03-23 07:15:00,7.8,4.0,30.12,North,350,2.0,6.0,84,0.00,,---,0.00,VWS V14.01,2013-03-23 13:15:00,
2013-03-23 07:16:00,7.8,4.0,30.12,North,355,0.0,4.0,84,0.00,,---,0.00,VWS V14.01,2013-03-23 13:16:00,
2013-03-23 07:17:00,7.8,4.0,30.12,West,269,1.0,5.0,84,0.00,,---,0.00,VWS V14.01,2013-03-23 13:17:00,
2013-03-23 07:18:00,7.8,4.0,30.12,North,355,0.0,4.0,84,0.00,,---,0.00,VWS V14.01,2013-03-23 13:18:00,
2013-03-23 07:19:00,7.8,4.0,30.12,NNW,327,0.0,5.0,84,0.00,,---,0.00,VWS V14.01,2013-03-23 13:19:00,
2013-03-23 07:20:00,7.8,4.0,30.12,NW,325,2.0,4.0,84,0.00,,---,0.00,VWS V14.01,2013-03-23 13:20:00,
2013-03-23 07:21:00,7.8,4.0,30.12,NNW,336,0.0,4.0,84,0.00,,---,0.00,VWS V14.01,2013-03-23 13:21:00,
2013-03-23 07:22:00,7.8,4.0,30.12,NW,319,1.0,5.0,84,0.00,,---,0.00,VWS V14.01,2013-03-23 13:22:00,
2013-03-23 07:23:00,7.8,4.0,30.12,NNW,336,0.0,4.0,84,0.00,,---,0.00,VWS V14.01,2013-03-23 13:23:00,
2013-03-23 07:24:00,7.8,4.0,30.12,North,5,2.0,5.0,84,0.00,,---,0.00,VWS V14.01,2013-03-23 13:24:00,
2013-03-23 07:25:00,7.8,4.0,30.12,North,355,2.0,9.0,84,0.00,,---,0.00,VWS V14.01,2013-03-23 13:25:00,
2013-03-23 07:26:00,7.8,4.0,30.12,NW,304,7.0,7.0,84,0.00,,---,0.00,VWS V14.01,2013-03-23 13:26:00,
2013-03-23 07:27:00,7.8,4.0,30.12,NNE,16,2.0,7.0,84,0.00,,---,0.00,VWS V14.01,2013-03-23 13:27:00,
2013-03-23 07:28:00,7.8,4.0,30.12,NW,304,7.0,7.0,84,0.00,,---,0.00,VWS V14.01,2013-03-23 13:28:00,
2013-03-23 07:29:00,7.8,4.0,30.13,NNW,336,5.0,8.0,84,0.00,,---,0.00,VWS V14.01,2013-03-23 13:29:00,
2013-03-23 07:30:00,7.8,4.0,30.13,North,355,1.0,5.0,84,0.00,,---,0.00,VWS V14.01,2013-03-23 13:30:00,
2013-03-23 07:31:00,7.8,4.0,30.13,North,355,2.0,2.0,84,0.00,,---,0.00,VWS V14.01,2013-03-23 13:31:00,
2013-03-23 07:32:00,7.8,4.0,30.13,North,355,0.0,3.0,84,0.00,,---,0.00,VWS V14.01,2013-03-23 13:32:00,
2013-03-23 07:33:00,7.8,4.0,30.13,North,355,2.0,2.0,84,0.00,,---,0.00,VWS V14.01,2013-03-23 13:33:00,
2013-03-23 07:34:00,7.8,4.0,30.13,NNE,15,0.0,2.0,84,0.00,,---,0.00,VWS V14.01,2013-03-23 13:34:00,
2013-03-23 07:36:00,7.8,4.0,30.12,NNW,331,2.0,10.0,84,0.00,,---,0.00,VWS V14.01,2013-03-23 13:36:00,
2013-03-23 07:38:00,7.8,4.0,30.12,NNW,331,2.0,10.0,84,0.00,,---,0.00,VWS V14.01,2013-03-23 13:38:00,
2013-03-23 07:40:00,7.8,4.0,30.12,NE,42,1.0,7.0,84,0.00,,---,0.00,VWS V14.01,2013-03-23 13:40:00,
2013-03-23 07:41:00,7.8,4.0,30.12,NW,311,2.0,10.0,84,0.00,,---,0.00,VWS V14.01,2013-03-23 13:41:00,
2013-03-23 07:42:00,7.8,4.0,30.12,NW,314,2.0,9.0,84,0.00,,---,0.00,VWS V14.01,2013-03-23 13:42:00,
2013-03-23 07:43:00,7.8,4.0,30.12,NW,311,2.0,10.0,84,0.00,,---,0.00,VWS V14.01,2013-03-23 13:43:00,
2013-03-23 07:44:00,7.8,4.0,30.12,NW,321,5.0,6.0,84,0.00,,---,0.00,VWS V14.01,2013-03-23 13:44:00,
2013-03-23 07:45:00,7.8,4.0,30.12,NNW,345,2.0,7.0,84,0.00,,---,0.00,VWS V14.01,2013-03-23 13:45:00,
2013-03-23 07:46:00,7.9,4.1,30.12,NW,321,8.0,9.0,84,0.00,,---,0.00,VWS V14.01,2013-03-23 13:46:00,
2013-03-23 07:47:00,7.9,4.1,30.12,North,350,9.0,10.0,84,0.00,,---,0.00,VWS V14.01,2013-03-23 13:47:00,
2013-03-23 07:48:00,7.9,4.1,30.12,NW,321,8.0,9.0,84,0.00,,---,0.00,VWS V14.01,2013-03-23 13:48:00,
2013-03-23 07:49:00,7.9,4.1,30.12,NW,314,4.0,12.0,84,0.00,,---,0.00,VWS V14.01,2013-03-23 13:49:00,
2013-03-23 07:50:00,7.9,4.1,30.12,North,5,1.0,6.0,84,0.00,,---,0.00,VWS V14.01,2013-03-23 13:50:00,
2013-03-23 07:51:00,7.9,3.8,30.12,North,360,2.0,4.0,83,0.00,,---,0.00,VWS V14.01,2013-03-23 13:51:00,
2013-03-23 07:52:00,7.9,4.1,30.12,NNW,333,6.0,12.0,84,0.00,,---,0.00,VWS V14.01,2013-03-23 13:52:00,
2013-03-23 07:53:00,7.9,3.8,30.12,North,360,2.0,4.0,83,0.00,,---,0.00,VWS V14.01,2013-03-23 13:53:00,
2013-03-23 07:54:00,7.9,3.8,30.12,North,5,6.0,8.0,83,0.00,,---,0.00,VWS V14.01,2013-03-23 13:54:00,
2013-03-23 07:55:00,7.9,3.8,30.12,WNW,303,12.0,12.0,83,0.00,,---,0.00,VWS V14.01,2013-03-23 13:55:00,
2013-03-23 07:56:00,7.9,3.8,30.12,North,5,6.0,12.0,83,0.00,,---,0.00,VWS V14.01,2013-03-23 13:56:00,
2013-03-23 07:57:00,7.9,3.8,30.12,NNE,24,1.0,8.0,83,0.00,,---,0.00,VWS V14.01,2013-03-23 13:57:00,
2013-03-23 07:58:00,7.9,3.8,30.12,North,5,6.0,12.0,83,0.00,,---,0.00,VWS V14.01,2013-03-23 13:58:00,
2013-03-23 07:59:00,7.9,3.8,30.13,WNW,303,4.0,7.0,83,0.00,,---,0.00,VWS V14.01,2013-03-23 13:59:00,
2013-03-23 08:00:00,7.8,3.7,30.13,North,5,6.0,8.0,83,0.00,,---,0.00,VWS V14.01,2013-03-23 14:00:00,
2013-03-23 08:01:00,7.9,3.8,30.13,NNW,336,1.0,6.0,83,0.00,,---,0.00,VWS V14.01,2013-03-23 14:01:00,
2013-03-23 08:02:00,7.8,3.7,30.13,NW,314,6.0,12.0,83,0.00,,---,0.00,VWS V14.01,2013-03-23 14:02:00,
2013-03-23 08:03:00,7.9,3.8,30.13,NNW,336,1.0,6.0,83,0.00,,---,0.00,VWS V14.01,2013-03-23 14:03:00,
2013-03-23 08:04:00,7.9,3.8,30.13,NE,54,0.0,4.0,83,0.00,,---,0.00,VWS V14.01,2013-03-23 14:04:00,
2013-03-23 08:05:00,7.8,3.7,30.14,NE,54,0.0,0.0,83,0.00,,---,0.00,VWS V14.01,2013-03-23 14:05:00,
2013-03-23 08:06:00,7.8,3.7,30.14,NW,315,4.0,7.0,83,0.00,,---,0.00,VWS V14.01,2013-03-23 14:06:00,
2013-03-23 08:07:00,7.9,3.8,30.14,North,5,2.0,4.0,83,0.00,,---,0.00,VWS V14.01,2013-03-23 14:07:00,
2013-03-23 08:08:00,7.8,3.7,30.14,NW,315,4.0,7.0,83,0.00,,---,0.00,VWS V14.01,2013-03-23 14:08:00,
2013-03-23 08:09:00,7.8,3.7,30.14,NNE,29,0.0,4.0,83,0.00,,---,0.00,VWS V14.01,2013-03-23 14:09:00,
2013-03-23 08:10:00,7.9,3.8,30.14,North,355,8.0,10.0,83,0.00,,---,0.00,VWS V14.01,2013-03-23 14:10:00,
2013-03-23 08:11:00,7.8,3.7,30.14,WNW,296,2.0,8.0,83,0.00,,---,0.00,VWS V14.01,2013-03-23 14:11:00,
2013-03-23 08:12:00,7.8,6.0,30.14,NNE,12,1.0,10.0,92,0.00,,---,0.00,VWS V14.01,2013-03-23 14:12:00,
2013-03-23 08:13:00,7.8,3.7,30.14,WNW,296,2.0,8.0,83,0.00,,---,0.00,VWS V14.01,2013-03-23 14:13:00,
2013-03-23 08:14:00,7.8,3.7,30.14,NNW,331,7.0,7.0,83,0.00,,---,0.00,VWS V14.01,2013-03-23 14:14:00,
2013-03-23 08:15:00,7.8,3.7,30.14,North,349,2.0,10.0,83,0.00,,---,0.00,VWS V14.01,2013-03-23 14:15:00,
2013-03-23 08:16:00,7.8,3.7,30.14,North,5,5.0,9.0,83,0.00,,---,0.00,VWS V14.01,2013-03-23 14:16:00,
2013-03-23 08:17:00,7.8,3.7,30.14,NW,325,2.0,6.0,83,0.00,,---,0.00,VWS V14.01,2013-03-23 14:17:00,
2013-03-23 08:18:00,7.8,3.7,30.14,North,5,5.0,9.0,83,0.00,,---,0.00,VWS V14.01,2013-03-23 14:18:00,
2013-03-23 08:19:00,7.9,3.8,30.14,NW,307,2.0,6.0,83,0.00,,---,0.00,VWS V14.01,2013-03-23 14:19:00,
2013-03-23 08:20:00,7.9,3.8,30.14,North,355,7.0,8.0,83,0.00,,---,0.00,VWS V14.01,2013-03-23 14:20:00,
2013-03-23 08:21:00,7.9,3.8,30.14,NNW,348,11.0,11.0,83,0.00,,---,0.00,VWS V14.01,2013-03-23 14:21:00,
2013-03-23 08:22:00,7.9,3.8,30.14,NNW,347,10.0,13.0,83,0.00,,---,0.00,VWS V14.01,2013-03-23 14:22:00,
2013-03-23 08:23:00,7.9,3.8,30.14,NNW,348,11.0,11.0,83,0.00,,---,0.00,VWS V14.01,2013-03-23 14:23:00,
2013-03-23 08:24:00,7.8,6.0,30.14,NNW,348,2.0,6.0,92,0.00,,---,0.00,VWS V14.01,2013-03-23 14:24:00,
2013-03-23 08:25:00,7.8,3.7,30.14,WNW,283,4.0,8.0,83,0.00,,---,0.00,VWS V14.01,2013-03-23 14:25:00,
2013-03-23 08:26:00,7.8,3.5,30.14,NNW,328,6.0,6.0,82,0.00,,---,0.00,VWS V14.01,2013-03-23 14:26:00,
2013-03-23 08:27:00,7.8,3.7,30.14,NNW,345,7.0,9.0,83,0.00,,---,0.00,VWS V14.01,2013-03-23 14:27:00,
2013-03-23 08:28:00,7.8,3.5,30.14,NNW,328,6.0,6.0,82,0.00,,---,0.00,VWS V14.01,2013-03-23 14:28:00,
2013-03-23 08:29:00,7.8,3.5,30.14,NNE,14,1.0,12.0,82,0.00,,---,0.00,VWS V14.01,2013-03-23 14:29:00,
2013-03-23 08:30:00,7.8,3.5,30.14,NNW,331,2.0,7.0,82,0.00,,---,0.00,VWS V14.01,2013-03-23 14:30:00,
2013-03-23 08:31:00,7.7,3.4,30.14,North,11,9.0,9.0,82,0.00,,---,0.00,VWS V14.01,2013-03-23 14:31:00,
2013-03-23 08:32:00,7.7,3.4,30.14,NNW,338,5.0,9.0,82,0.00,,---,0.00,VWS V14.01,2013-03-23 14:32:00,
2013-03-23 08:33:00,7.7,3.4,30.14,North,11,9.0,9.0,82,0.00,,---,0.00,VWS V14.01,2013-03-23 14:33:00,
2013-03-23 08:34:00,7.7,3.4,30.14,West,277,4.0,13.0,82,0.00,,---,0.00,VWS V14.01,2013-03-23 14:34:00,
2013-03-23 08:35:00,7.6,3.0,30.14,North,350,6.0,13.0,81,0.00,,---,0.00,VWS V14.01,2013-03-23 14:35:00,
2013-03-23 08:36:00,7.6,3.0,30.14,NNW,348,0.0,6.0,81,0.00,,---,0.00,VWS V14.01,2013-03-23 14:36:00,
2013-03-23 08:37:00,7.6,3.0,30.14,West,274,10.0,11.0,81,0.00,,---,0.00,VWS V14.01,2013-03-23 14:37:00,
2013-03-23 08:38:00,7.6,3.0,30.14,NNW,348,0.0,6.0,81,0.00,,---,0.00,VWS V14.01,2013-03-23 14:38:00,
2013-03-23 08:39:00,7.5,2.9,30.14,NNW,338,9.0,9.0,81,0.00,,---,0.00,VWS V14.01,2013-03-23 14:39:00,
2013-03-23 08:40:00,7.4,2.8,30.14,NNW,344,7.0,18.0,81,0.00,,---,0.00,VWS V14.01,2013-03-23 14:40:00,
2013-03-23 08:41:00,7.4,2.8,30.15,West,273,4.0,8.0,81,0.00,,---,0.00,VWS V14.01,2013-03-23 14:41:00,
2013-03-23 08:42:00,7.3,2.7,30.14,North,360,3.0,11.0,81,0.00,,---,0.00,VWS V14.01,2013-03-23 14:42:00,
2013-03-23 08:43:00,7.4,2.8,30.15,West,273,4.0,8.0,81,0.00,,---,0.00,VWS V14.01,2013-03-23 14:43:00,
2013-03-23 08:44:00,7.3,2.7,30.15,North,351,5.0,13.0,81,0.00,,---,0.00,VWS V14.01,2013-03-23 14:44:00,
2013-03-23 08:45:00,7.2,2.6,30.15,NW,320,1.0,8.0,81,0.00,,---,0.00,VWS V14.01,2013-03-23 14:45:00,
2013-03-23 08:46:00,7.2,2.6,30.15,SW,227,3.0,5.0,81,0.00,,---,0.00,VWS V14.01,2013-03-23 14:46:00,
2013-03-23 08:47:00,7.2,2.6,30.15,North,360,6.0,7.0,81,0.00,,---,0.00,VWS V14.01,2013-03-23 14:47:00,
2013-03-23 08:48:00,7.2,2.6,30.15,SW,227,3.0,5.0,81,0.00,,---,0.00,VWS V14.01,2013-03-23 14:48:00,
2013-03-23 08:49:00,7.1,2.5,30.15,North,351,7.0,12.0,81,0.00,,---,0.00,VWS V14.01,2013-03-23 14:49:00,
2013-03-23 08:50:00,7.1,2.5,30.15,East,82,2.0,9.0,81,0.00,,---,0.00,VWS V14.01,2013-03-23 14:50:00,
2013-03-23 08:51:00,7.1,2.5,30.15,NW,315,10.0,11.0,81,0.00,,---,0.00,VWS V14.01,2013-03-23 14:51:00,
2013-03-23 08:52:00,7.0,2.4,30.15,NNW,344,0.0,10.0,81,0.00,,---,0.00,VWS V14.01,2013-03-23 14:52:00,
2013-03-23 08:53:00,7.1,2.5,30.15,NW,315,10.0,11.0,81,0.00,,---,0.00,VWS V14.01,2013-03-23 14:53:00,
2013-03-23 08:54:00,7.0,2.4,30.15,North,360,9.0,12.0,81,0.00,,---,0.00,VWS V14.01,2013-03-23 14:54:00,
2013-03-23 08:55:00,6.9,2.3,30.15,NW,323,2.0,11.0,81,0.00,,---,0.00,VWS V14.01,2013-03-23 14:55:00,
2013-03-23 08:56:00,6.9,2.3,30.16,WNW,284,2.0,5.0,81,0.00,,---,0.00,VWS V14.01,2013-03-23 14:56:00,
2013-03-23 08:57:00,6.9,2.3,30.16,NW,326,5.0,5.0,81,0.00,,---,0.00,VWS V14.01,2013-03-23 14:57:00,
2013-03-23 08:58:00,6.9,2.3,30.16,WNW,284,2.0,5.0,81,0.00,,---,0.00,VWS V14.01,2013-03-23 14:58:00,
2013-03-23 08:59:00,6.9,2.3,30.16,North,5,4.0,9.0,81,0.00,,---,0.00,VWS V14.01,2013-03-23 14:59:00,
2013-03-23 09:00:00,6.9,2.3,30.16,NW,325,0.0,6.0,81,0.00,,---,0.00,VWS V14.01,2013-03-23 15:00:00,
2013-03-23 09:01:00,6.9,2.3,30.16,WNW,300,2.0,8.0,81,0.00,,---,0.00,VWS V14.01,2013-03-23 15:01:00,
2013-03-23 09:02:00,6.9,2.3,30.16,NNE,28,3.0,3.0,81,0.00,,---,0.00,VWS V14.01,2013-03-23 15:02:00,
2013-03-23 09:03:00,6.9,2.3,30.16,WNW,300,2.0,8.0,81,0.00,,---,0.00,VWS V14.01,2013-03-23 15:03:00,
2013-03-23 09:04:00,6.9,2.3,30.16,North,350,0.0,10.0,81,0.00,,---,0.00,VWS V14.01,2013-03-23 15:04:00,
2013-03-23 09:05:00,7.0,2.7,30.16,North,350,0.0,1.0,82,0.00,,---,0.00,VWS V14.01,2013-03-23 15:05:00,
2013-03-23 09:06:00,7.0,2.7,30.16,North,5,5.0,8.0,82,0.00,,---,0.00,VWS V14.01,2013-03-23 15:06:00,
2013-03-23 09:07:00,6.9,2.3,30.16,North,355,5.0,8.0,81,0.00,,---,0.00,VWS V14.01,2013-03-23 15:07:00,
2013-03-23 09:08:00,7.0,2.7,30.16,North,5,5.0,8.0,82,0.00,,---,0.00,VWS V14.01,2013-03-23 15:08:00,
2013-03-23 09:09:00,7.0,2.4,30.16,NNW,331,1.0,11.0,81,0.00,,---,0.00,VWS V14.01,2013-03-23 15:09:00,
2013-03-23 09:10:00,6.9,2.3,30.16,NW,318,5.0,6.0,81,0.00,,---,0.00,VWS V14.01,2013-03-23 15:10:00,
2013-03-23 09:11:00,6.9,2.3,30.16,NW,323,6.0,9.0,81,0.00,,---,0.00,VWS V14.01,2013-03-23 15:11:00,
2013-03-23 09:12:00,6.9,2.3,30.16,West,279,2.0,8.0,81,0.00,,---,0.00,VWS V14.01,2013-03-23 15:12:00,
2013-03-23 09:13:00,6.9,2.3,30.16,NNW,331,5.0,8.0,81,0.00,,---,0.00,VWS V14.01,2013-03-23 15:13:00,
2013-03-23 09:14:00,6.9,2.3,30.17,WNW,303,3.0,10.0,81,0.00,,---,0.00,VWS V14.01,2013-03-23 15:14:00,
2013-03-23 09:15:00,6.9,2.3,30.17,WNW,303,2.0,3.0,81,0.00,,---,0.00,VWS V14.01,2013-03-23 15:15:00,
2013-03-23 09:16:00,6.9,2.3,30.17,WNW,303,2.0,2.0,81,0.00,,---,0.00,VWS V14.01,2013-03-23 15:16:00,
2013-03-23 09:17:00,6.8,2.2,30.17,NW,311,4.0,10.0,81,0.00,,---,0.00,VWS V14.01,2013-03-23 15:17:00,
2013-03-23 09:18:00,6.9,2.3,30.17,WNW,303,2.0,2.0,81,0.00,,---,0.00,VWS V14.01,2013-03-23 15:18:00,
2013-03-23 09:19:00,6.8,2.2,30.17,NW,319,0.0,8.0,81,0.00,,---,0.00,VWS V14.01,2013-03-23 15:19:00,
2013-03-23 09:20:00,6.8,2.2,30.17,WNW,297,7.0,10.0,81,0.00,,---,0.00,VWS V14.01,2013-03-23 15:20:00,
2013-03-23 09:21:00,6.8,2.2,30.17,NW,306,9.0,12.0,81,0.00,,---,0.00,VWS V14.01,2013-03-23 15:21:00,
2013-03-23 09:22:00,6.8,2.2,30.17,NW,323,9.0,11.0,81,0.00,,---,0.00,VWS V14.01,2013-03-23 15:22:00,
2013-03-23 09:23:00,6.8,2.2,30.17,NW,322,3.0,11.0,81,0.00,,---,0.00,VWS V14.01,2013-03-23 15:23:00,
2013-03-23 09:24:00,6.8,2.2,30.17,NNW,337,4.0,11.0,81,0.00,,---,0.00,VWS V14.01,2013-03-23 15:24:00,
2013-03-23 09:25:00,6.8,2.2,30.17,North,5,4.0,7.0,81,0.00,,---,0.00,VWS V14.01,2013-03-23 15:25:00,
2013-03-23 09:26:00,6.8,2.2,30.17,NNW,336,6.0,7.0,81,0.00,,---,0.00,VWS V14.01,2013-03-23 15:26:00,
2013-03-23 09:27:00,6.7,2.1,30.17,North,11,3.0,10.0,81,0.00,,---,0.00,VWS V14.01,2013-03-23 15:27:00,
2013-03-23 09:28:00,6.7,2.1,30.17,WNW,285,2.0,10.0,81,0.00,,---,0.00,VWS V14.01,2013-03-23 15:28:00,
2013-03-23 09:29:00,6.7,2.1,30.17,North,355,1.0,9.0,81,0.00,,---,0.00,VWS V14.01,2013-03-23 15:29:00,
2013-03-23 09:30:00,6.7,2.1,30.17,North,9,2.0,6.0,81,0.00,,---,0.00,VWS V14.01,2013-03-23 15:30:00,
2013-03-23 09:31:00,6.7,2.1,30.17,WNW,303,3.0,7.0,81,0.00,,---,0.00,VWS V14.01,2013-03-23 15:31:00,
2013-03-23 09:32:00,6.6,2.0,30.17,NNW,346,3.0,4.0,81,0.00,,---,0.00,VWS V14.01,2013-03-23 15:32:00,
2013-03-23 09:33:00,6.7,2.1,30.17,NW,309,0.0,3.0,81,0.00,,---,0.00,VWS V14.01,2013-03-23 15:33:00,
2013-03-23 09:34:00,6.7,2.1,30.17,WNW,288,2.0,7.0,81,0.00,,---,0.00,VWS V14.01,2013-03-23 15:34:00,
2013-03-23 09:35:00,6.7,2.1,30.17,North,5,3.0,6.0,81,0.00,,---,0.00,VWS V14.01,2013-03-23 15:35:00,
2013-03-23 09:36:00,6.7,2.1,30.18,NW,304,5.0,18.0,81,0.00,,---,0.00,VWS V14.01,2013-03-23 15:36:00,
2013-03-23 09:37:00,6.7,2.1,30.18,NNW,338,5.0,14.0,81,0.00,,---,0.00,VWS V14.01,2013-03-23 15:37:00,
2013-03-23 09:38:00,6.7,2.1,30.18,NW,319,4.0,13.0,81,0.00,,---,0.00,VWS V14.01,2013-03-23 15:38:00,
2013-03-23 09:39:00,6.6,1.8,30.18,West,277,8.0,8.0,80,0.00,,---,0.00,VWS V14.01,2013-03-23 15:39:00,
2013-03-23 09:40:00,6.6,1.8,30.18,NNW,347,1.0,10.0,80,0.00,,---,0.00,VWS V14.01,2013-03-23 15:40:00,
2013-03-23 09:41:00,6.6,1.8,30.18,North,9,7.0,14.0,80,0.00,,---,0.00,VWS V14.01,2013-03-23 15:41:00,
2013-03-23 09:42:00,6.6,1.8,30.18,NW,325,6.0,7.0,80,0.00,,---,0.00,VWS V14.01,2013-03-23 15:42:00,
2013-03-23 09:43:00,6.6,1.8,30.18,NW,305,4.0,7.0,80,0.00,,---,0.00,VWS V14.01,2013-03-23 15:43:00,
2013-03-23 09:44:00,6.6,1.8,30.18,NW,325,6.0,12.0,80,0.00,,---,0.00,VWS V14.01,2013-03-23 15:44:00,
2013-03-23 09:45:00,6.5,1.7,30.18,NNW,333,2.0,10.0,80,0.00,,---,0.00,VWS V14.01,2013-03-23 15:45:00,
2013-03-23 09:46:00,6.5,1.7,30.18,North,355,12.0,12.0,80,0.00,,---,0.00,VWS V14.01,2013-03-23 15:46:00,
2013-03-23 09:47:00,6.5,1.7,30.18,NNW,332,3.0,12.0,80,0.00,,---,0.00,VWS V14.01,2013-03-23 15:47:00,
2013-03-23 09:48:00,6.5,1.7,30.18,NW,306,4.0,12.0,80,0.00,,---,0.00,VWS V14.01,2013-03-23 15:48:00,
2013-03-23 09:49:00,6.4,1.6,30.18,WNW,302,1.0,8.0,80,0.00,,---,0.00,VWS V14.01,2013-03-23 15:49:00,
2013-03-23 09:50:00,6.4,1.6,30.18,NW,309,1.0,11.0,80,0.00,,---,0.00,VWS V14.01,2013-03-23 15:50:00,
2013-03-23 09:51:00,6.4,1.6,30.19,WNW,284,5.0,7.0,80,0.00,,---,0.00,VWS V14.01,2013-03-23 15:51:00,
2013-03-23 09:52:00,6.4,1.6,30.19,WNW,288,8.0,8.0,80,0.00,,---,0.00,VWS V14.01,2013-03-23 15:52:00,
2013-03-23 09:53:00,6.4,1.6,30.19,NNW,329,4.0,5.0,80,0.00,,---,0.00,VWS V14.01,2013-03-23 15:53:00,
2013-03-23 09:54:00,6.4,1.6,30.19,North,5,8.0,10.0,80,0.00,,---,0.00,VWS V14.01,2013-03-23 15:54:00,
2013-03-23 09:55:00,6.4,1.6,30.19,North,355,3.0,12.0,80,0.00,,---,0.00,VWS V14.01,2013-03-23 15:55:00,
2013-03-23 09:56:00,6.4,1.6,30.19,WNW,295,8.0,14.0,80,0.00,,---,0.00,VWS V14.01,2013-03-23 15:56:00,
2013-03-23 09:57:00,6.4,1.6,30.19,NNW,333,7.0,15.0,80,0.00,,---,0.00,VWS V14.01,2013-03-23 15:57:00,
2013-03-23 09:58:00,6.4,1.6,30.19,NNW,334,6.0,15.0,80,0.00,,---,0.00,VWS V14.01,2013-03-23 15:58:00,
2013-03-23 09:59:00,6.4,1.6,30.19,NW,313,9.0,11.0,80,0.00,,---,0.00,VWS V14.01,2013-03-23 15:59:00,
2013-03-23 10:00:00,6.4,1.6,30.19,WNW,290,9.0,11.0,80,0.00,,---,0.00,VWS V14.01,2013-03-23 16:00:00,
2013-03-23 10:01:00,6.4,1.6,30.19,NNW,347,3.0,12.0,80,0.00,,---,0.00,VWS V14.01,2013-03-23 16:01:00,
2013-03-23 10:02:00,6.4,1.6,30.19,NNW,334,3.0,11.0,80,0.00,,---,0.00,VWS V14.01,2013-03-23 16:02:00,
2013-03-23 10:03:00,6.4,1.6,30.19,NW,307,6.0,11.0,80,0.00,,---,0.00,VWS V14.01,2013-03-23 16:03:00,
2013-03-23 10:04:00,6.5,1.7,30.19,NNW,347,4.0,7.0,80,0.00,,---,0.00,VWS V14.01,2013-03-23 16:04:00,
2013-03-23 10:05:00,6.5,1.7,30.19,North,355,5.0,6.0,80,0.00,,---,0.00,VWS V14.01,2013-03-23 16:05:00,
2013-03-23 10:06:00,6.5,1.7,30.19,NW,316,9.0,13.0,80,0.00,,---,0.00,VWS V14.01,2013-03-23 16:06:00,
2013-03-23 10:07:00,6.5,1.7,30.19,NW,306,12.0,12.0,80,0.00,,---,0.00,VWS V14.01,2013-03-23 16:07:00,
2013-03-23 10:08:00,6.5,1.7,30.20,NNW,331,6.0,14.0,80,0.00,,---,0.00,VWS V14.01,2013-03-23 16:08:00,
2013-03-23 10:09:00,6.5,1.7,30.19,NW,306,12.0,12.0,80,0.00,,---,0.00,VWS V14.01,2013-03-23 16:09:00,
2013-03-23 10:10:00,6.6,1.8,30.20,NNW,327,5.0,13.0,80,0.00,,---,0.00,VWS V14.01,2013-03-23 16:10:00,
2013-03-23 10:11:00,6.6,1.8,30.20,WNW,293,8.0,11.0,80,0.00,,---,0.00,VWS V14.01,2013-03-23 16:11:00,
2013-03-23 10:12:00,6.6,1.8,30.20,North,360,7.0,11.0,80,0.00,,---,0.00,VWS V14.01,2013-03-23 16:12:00,
2013-03-23 10:13:00,6.6,1.8,30.20,WNW,298,5.0,13.0,80,0.00,,---,0.00,VWS V14.01,2013-03-23 16:13:00,
2013-03-23 10:14:00,6.6,1.8,30.20,North,355,7.0,7.0,80,0.00,,---,0.00,VWS V14.01,2013-03-23 16:14:00,
2013-03-23 10:15:00,6.6,1.8,30.20,NNW,327,9.0,14.0,80,0.00,,---,0.00,VWS V14.01,2013-03-23 16:15:00,
2013-03-23 10:16:00,6.6,1.8,30.20,NNW,327,4.0,9.0,80,0.00,,---,0.00,VWS V14.01,2013-03-23 16:16:00,
2013-03-23 10:17:00,6.7,1.9,30.20,NNW,337,6.0,11.0,80,0.00,,---,0.00,VWS V14.01,2013-03-23 16:17:00,
2013-03-23 10:18:00,6.7,1.9,30.20,NNW,348,4.0,11.0,80,0.00,,---,0.00,VWS V14.01,2013-03-23 16:18:00,
2013-03-23 10:19:00,6.7,1.9,30.20,North,360,10.0,10.0,80,0.00,,---,0.00,VWS V14.01,2013-03-23 16:19:00,
2013-03-23 10:20:00,6.7,1.9,30.20,NNE,30,7.0,11.0,80,0.00,,---,0.00,VWS V14.01,2013-03-23 16:20:00,
2013-03-23 10:21:00,6.7,1.9,30.20,North,360,1.0,7.0,80,0.00,,---,0.00,VWS V14.01,2013-03-23 16:21:00,
2013-03-23 10:22:00,6.7,1.9,30.21,North,360,1.0,2.0,80,0.00,,---,0.00,VWS V14.01,2013-03-23 16:22:00,
2013-03-23 10:23:00,6.8,2.0,30.20,WNW,294,1.0,6.0,80,0.00,,---,0.00,VWS V14.01,2013-03-23 16:23:00,
2013-03-23 10:24:00,6.7,1.9,30.21,North,360,2.0,2.0,80,0.00,,---,0.00,VWS V14.01,2013-03-23 16:24:00,
2013-03-23 10:25:00,6.9,2.3,30.21,SW,215,1.0,8.0,81,0.00,,---,0.00,VWS V14.01,2013-03-23 16:25:00,
2013-03-23 10:26:00,6.9,2.3,30.21,NNE,21,7.0,11.0,81,0.00,,---,0.00,VWS V14.01,2013-03-23 16:26:00,
2013-03-23 10:27:00,6.9,2.0,30.21,NNW,348,7.0,7.0,80,0.00,,---,0.00,VWS V14.01,2013-03-23 16:27:00,
2013-03-23 10:28:00,7.0,2.2,30.21,NNW,341,6.0,9.0,80,0.00,,---,0.00,VWS V14.01,2013-03-23 16:28:00,
2013-03-23 10:29:00,6.9,2.0,30.21,NNW,336,4.0,7.0,80,0.00,,---,0.00,VWS V14.01,2013-03-23 16:29:00,
2013-03-23 10:30:00,7.0,2.2,30.21,WNW,299,6.0,12.0,80,0.00,,---,0.00,VWS V14.01,2013-03-23 16:30:00,
2013-03-23 10:31:00,7.1,2.2,30.21,North,350,6.0,11.0,80,0.00,,---,0.00,VWS V14.01,2013-03-23 16:31:00,
2013-03-23 10:32:00,7.0,2.2,30.21,NNW,340,8.0,13.0,80,0.00,,---,0.00,VWS V14.01,2013-03-23 16:32:00,
2013-03-23 10:33:00,7.1,2.2,30.21,North,355,7.0,12.0,80,0.00,,---,0.00,VWS V14.01,2013-03-23 16:33:00,
2013-03-23 10:34:00,7.1,2.2,30.21,North,5,9.0,9.0,80,0.00,,---,0.00,VWS V14.01,2013-03-23 16:34:00,
2013-03-23 10:35:00,7.1,2.2,30.22,NNW,347,0.0,2.0,80,0.00,,---,0.00,VWS V14.01,2013-03-23 16:35:00,
2013-03-23 10:36:00,7.2,2.3,30.22,NW,313,6.0,6.0,80,0.00,,---,0.00,VWS V14.01,2013-03-23 16:36:00,
2013-03-23 10:37:00,7.2,2.6,30.22,NE,38,8.0,8.0,81,0.00,,---,0.00,VWS V14.01,2013-03-23 16:37:00,
2013-03-23 10:38:00,7.2,2.3,30.22,NNE,14,9.0,13.0,80,0.00,,---,0.00,VWS V14.01,2013-03-23 16:38:00,
2013-03-23 10:39:00,7.2,2.6,30.22,NW,319,4.0,8.0,81,0.00,,---,0.00,VWS V14.01,2013-03-23 16:39:00,
2013-03-23 10:40:00,7.2,2.3,30.22,NNW,342,3.0,9.0,80,0.00,,---,0.00,VWS V14.01,2013-03-23 16:40:00,
2013-03-23 10:41:00,7.2,2.1,30.22,WNW,287,6.0,10.0,79,0.00,,---,0.00,VWS V14.01,2013-03-23 16:41:00,
2013-03-23 10:42:00,7.2,2.1,30.22,WNW,294,1.0,6.0,79,0.00,,---,0.00,VWS V14.01,2013-03-23 16:42:00,
2013-03-23 10:43:00,7.2,2.1,30.22,NNW,347,7.0,8.0,79,0.00,,---,0.00,VWS V14.01,2013-03-23 16:43:00,
2013-03-23 10:44:00,7.2,2.1,30.22,NW,304,1.0,2.0,79,0.00,,---,0.00,VWS V14.01,2013-03-23 16:44:00,
2013-03-23 10:45:00,7.3,2.4,30.22,NNW,340,0.0,7.0,80,0.00,,---,0.00,VWS V14.01,2013-03-23 16:45:00,
2013-03-23 10:46:00,7.3,2.4,30.22,NNW,337,1.0,1.0,80,0.00,,---,0.00,VWS V14.01,2013-03-23 16:46:00,
2013-03-23 10:47:00,7.4,2.5,30.22,NNW,344,2.0,5.0,80,0.00,,---,0.00,VWS V14.01,2013-03-23 16:47:00,
2013-03-23 10:48:00,7.4,2.5,30.23,NNW,338,9.0,14.0,80,0.00,,---,0.00,VWS V14.01,2013-03-23 16:48:00,
2013-03-23 10:49:00,7.4,2.5,30.22,NNW,344,2.0,2.0,80,0.00,,---,0.00,VWS V14.01,2013-03-23 16:49:00,
2013-03-23 10:50:00,7.5,2.6,30.23,NW,316,2.0,10.0,80,0.00,,---,0.00,VWS V14.01,2013-03-23 16:50:00,
2013-03-23 10:51:00,7.5,2.6,30.23,North,5,2.0,6.0,80,0.00,,---,0.00,VWS V14.01,2013-03-23 16:51:00,
2013-03-23 10:52:00,7.5,2.6,30.23,North,360,5.0,11.0,80,0.00,,---,0.00,VWS V14.01,2013-03-23 16:52:00,
2013-03-23 10:53:00,7.5,2.4,30.23,North,9,8.0,12.0,79,0.00,,---,0.00,VWS V14.01,2013-03-23 16:53:00,
2013-03-23 10:54:00,7.5,2.4,30.23,North,355,8.0,12.0,79,0.00,,---,0.00,VWS V14.01,2013-03-23 16:54:00,
2013-03-23 10:55:00,7.5,2.4,30.23,NNW,340,6.0,10.0,79,0.00,,---,0.00,VWS V14.01,2013-03-23 16:55:00,
2013-03-23 10:56:00,7.6,2.5,30.23,North,355,3.0,9.0,79,0.00,,---,0.00,VWS V14.01,2013-03-23 16:56:00,
2013-03-23 10:57:00,7.6,2.5,30.23,NNE,16,5.0,7.0,79,0.00,,---,0.00,VWS V14.01,2013-03-23 16:57:00,
2013-03-23 10:58:00,7.6,2.5,30.23,WNW,302,4.0,7.0,79,0.00,,---,0.00,VWS V14.01,2013-03-23 16:58:00,
2013-03-23 10:59:00,7.6,2.5,30.23,NNW,328,6.0,7.0,79,0.00,,---,0.00,VWS V14.01,2013-03-23 16:59:00,
2013-03-23 11:00:00,7.7,2.6,30.24,NW,315,8.0,11.0,79,0.00,,---,0.00,VWS V14.01,2013-03-23 17:00:00,
2013-03-23 11:01:00,7.8,2.7,30.24,NW,317,0.0,8.0,79,0.00,,---,0.00,VWS V14.01,2013-03-23 17:01:00,
2013-03-23 11:02:00,7.8,2.7,30.24,North,355,0.0,7.0,79,0.00,,---,0.00,VWS V14.01,2013-03-23 17:02:00,
2013-03-23 11:03:00,7.8,2.7,30.24,NNE,26,0.0,4.0,79,0.00,,---,0.00,VWS V14.01,2013-03-23 17:03:00,
2013-03-23 11:04:00,7.8,2.7,30.24,NNE,13,4.0,4.0,79,0.00,,---,0.00,VWS V14.01,2013-03-23 17:04:00,
2013-03-23 11:05:00,7.9,2.8,30.24,North,355,0.0,8.0,79,0.00,,---,0.00,VWS V14.01,2013-03-23 17:05:00,
2013-03-23 11:06:00,7.9,2.8,30.24,NNW,331,0.0,5.0,79,0.00,,---,0.00,VWS V14.01,2013-03-23 17:06:00,
2013-03-23 11:07:00,8.0,2.8,30.24,ESE,103,2.0,3.0,79,0.00,,---,0.00,VWS V14.01,2013-03-23 17:07:00,
2013-03-23 11:08:00,8.0,2.8,30.25,NW,308,6.0,12.0,79,0.00,,---,0.00,VWS V14.01,2013-03-23 17:08:00,
2013-03-23 11:09:00,8.0,2.8,30.24,NW,314,2.0,12.0,79,0.00,,---,0.00,VWS V14.01,2013-03-23 17:09:00,
2013-03-23 11:10:00,8.0,2.8,30.25,North,351,13.0,15.0,79,0.00,,---,0.00,VWS V14.01,2013-03-23 17:10:00,
2013-03-23 11:11:00,8.0,2.6,30.25,WNW,295,8.0,14.0,78,0.00,,---,0.00,VWS V14.01,2013-03-23 17:11:00,
2013-03-23 11:12:00,8.0,2.6,30.25,NW,323,12.0,12.0,78,0.00,,---,0.00,VWS V14.01,2013-03-23 17:12:00,
2013-03-23 11:13:00,8.0,2.6,30.25,NNW,344,1.0,12.0,78,0.00,,---,0.00,VWS V14.01,2013-03-23 17:13:00,
2013-03-23 11:14:00,8.1,2.7,30.25,North,355,1.0,12.0,78,0.00,,---,0.00,VWS V14.01,2013-03-23 17:14:00,
2013-03-23 11:15:00,8.0,2.6,30.25,WNW,285,5.0,11.0,78,0.00,,---,0.00,VWS V14.01,2013-03-23 17:15:00,
2013-03-23 11:16:00,8.0,2.6,30.25,NNW,348,8.0,11.0,78,0.00,,---,0.00,VWS V14.01,2013-03-23 17:16:00,
2013-03-23 11:17:00,8.0,2.6,30.25,West,269,6.0,8.0,78,0.00,,---,0.00,VWS V14.01,2013-03-23 17:17:00,
2013-03-23 11:18:00,8.1,2.7,30.25,North,5,2.0,6.0,78,0.00,,---,0.00,VWS V14.01,2013-03-23 17:18:00,
2013-03-23 11:19:00,8.1,2.7,30.25,North,5,3.0,6.0,78,0.00,,---,0.00,VWS V14.01,2013-03-23 17:19:00,
2013-03-23 11:20:00,8.2,2.8,30.25,NW,306,0.0,2.0,78,0.00,,---,0.00,VWS V14.01,2013-03-23 17:20:00,
2013-03-23 11:21:00,8.2,2.8,30.25,East,81,8.0,8.0,78,0.00,,---,0.00,VWS V14.01,2013-03-23 17:21:00,
2013-03-23 11:22:00,8.3,2.9,30.26,North,351,2.0,10.0,78,0.00,,---,0.00,VWS V14.01,2013-03-23 17:22:00,
2013-03-23 11:23:00,8.3,2.9,30.26,NNW,340,7.0,7.0,78,0.00,,---,0.00,VWS V14.01,2013-03-23 17:23:00,
2013-03-23 11:24:00,8.3,2.9,30.26,NNW,327,3.0,6.0,78,0.00,,---,0.00,VWS V14.01,2013-03-23 17:24:00,
2013-03-23 11:25:00,8.3,2.9,30.26,WNW,301,0.0,8.0,78,0.00,,---,0.00,VWS V14.01,2013-03-23 17:25:00,
2013-03-23 11:26:00,8.4,3.0,30.26,NNW,338,2.0,4.0,78,0.00,,---,0.00,VWS V14.01,2013-03-23 17:26:00,
2013-03-23 11:27:00,8.4,3.2,30.26,NNW,346,5.0,6.0,79,0.00,,---,0.00,VWS V14.01,2013-03-23 17:27:00,
2013-03-23 11:28:00,8.5,3.1,30.26,NW,325,3.0,8.0,78,0.00,,---,0.00,VWS V14.01,2013-03-23 17:28:00,
2013-03-23 11:29:00,8.5,3.1,30.26,NW,325,3.0,8.0,78,0.00,,---,0.00,VWS V14.01,2013-03-23 17:29:00,
2013-03-23 11:30:00,8.5,2.8,30.26,NNW,340,2.0,4.0,77,0.00,,---,0.00,VWS V14.01,2013-03-23 17:30:00,
2013-03-23 11:31:00,8.5,2.8,30.26,NNW,346,6.0,11.0,77,0.00,,---,0.00,VWS V14.01,2013-03-23 17:31:00,
2013-03-23 11:32:00,8.5,2.8,30.26,NNE,28,5.0,7.0,77,0.00,,---,0.00,VWS V14.01,2013-03-23 17:32:00,
2013-03-23 11:33:00,8.5,2.5,30.26,North,9,1.0,8.0,76,0.00,,---,0.00,VWS V14.01,2013-03-23 17:33:00,
2013-03-23 11:34:00,8.5,2.5,30.26,North,9,1.0,8.0,76,0.00,,---,0.00,VWS V14.01,2013-03-23 17:34:00,
2013-03-23 11:35:00,8.6,2.9,30.26,NW,321,2.0,2.0,77,0.00,,---,0.00,VWS V14.01,2013-03-23 17:35:00,
2013-03-23 11:36:00,8.6,2.9,30.26,WSW,242,5.0,5.0,77,0.00,,---,0.00,VWS V14.01,2013-03-23 17:36:00,
2013-03-23 11:38:00,8.6,2.9,30.26,NNW,348,0.0,7.0,77,0.00,,---,0.00,VWS V14.01,2013-03-23 17:38:00,
2013-03-23 11:39:00,8.6,2.9,30.26,NNW,348,0.0,7.0,77,0.00,,---,0.00,VWS V14.01,2013-03-23 17:39:00,
2013-03-23 11:40:00,8.7,3.0,30.26,North,355,1.0,9.0,77,0.00,,---,0.00,VWS V14.01,2013-03-23 17:40:00,
2013-03-23 11:41:00,8.7,3.0,30.26,North,355,0.0,2.0,77,0.00,,---,0.00,VWS V14.01,2013-03-23 17:41:00,
2013-03-23 11:43:00,8.9,3.5,30.26,North,355,2.0,11.0,78,0.00,,---,0.00,VWS V14.01,2013-03-23 17:43:00,
2013-03-23 11:44:00,8.9,3.5,30.26,North,355,2.0,11.0,78,0.00,,---,0.00,VWS V14.01,2013-03-23 17:44:00,
2013-03-23 11:45:00,9.0,3.3,30.26,North,360,6.0,9.0,77,0.00,,---,0.00,VWS V14.01,2013-03-23 17:45:00,
2013-03-23 11:46:00,9.0,3.3,30.26,North,5,0.0,6.0,77,0.00,,---,0.00,VWS V14.01,2013-03-23 17:46:00,
2013-03-23 11:47:00,9.1,3.4,30.26,NNW,331,8.0,10.0,77,0.00,,---,0.00,VWS V14.01,2013-03-23 17:47:00,
2013-03-23 11:48:00,9.1,3.4,30.26,North,351,2.0,10.0,77,0.00,,---,0.00,VWS V14.01,2013-03-23 17:48:00,
2013-03-23 11:49:00,9.1,3.4,30.26,North,351,2.0,10.0,77,0.00,,---,0.00,VWS V14.01,2013-03-23 17:49:00,
2013-03-23 11:50:00,9.1,3.4,30.26,SW,227,0.0,4.0,77,0.00,,---,0.00,VWS V14.01,2013-03-23 17:50:00,
2013-03-23 11:51:00,9.2,3.5,30.27,NW,321,1.0,10.0,77,0.00,,---,0.00,VWS V14.01,2013-03-23 17:51:00,
2013-03-23 11:52:00,9.2,3.2,30.27,NNW,336,5.0,5.0,76,0.00,,---,0.00,VWS V14.01,2013-03-23 17:52:00,
2013-03-23 11:53:00,9.2,3.2,30.27,North,10,1.0,8.0,76,0.00,,---,0.00,VWS V14.01,2013-03-23 17:53:00,
2013-03-23 11:54:00,9.2,3.2,30.27,NNW,342,8.0,9.0,76,0.00,,---,0.00,VWS V14.01,2013-03-23 17:54:00,
2013-03-23 11:55:00,9.2,3.2,30.27,North,10,1.0,8.0,76,0.00,,---,0.00,VWS V14.01,2013-03-23 17:55:00,
2013-03-23 11:56:00,9.1,2.8,30.27,NNW,333,4.0,8.0,75,0.00,,---,0.00,VWS V14.01,2013-03-23 17:56:00,
2013-03-23 11:57:00,9.1,2.8,30.27,NNE,17,6.0,9.0,75,0.00,,---,0.00,VWS V14.01,2013-03-23 17:57:00,
2013-03-23 11:58:00,9.0,2.7,30.27,WNW,301,6.0,12.0,75,0.00,,---,0.00,VWS V14.01,2013-03-23 17:58:00,
2013-03-23 11:59:00,9.0,2.7,30.27,WNW,301,6.0,12.0,75,0.00,,---,0.00,VWS V14.01,2013-03-23 17:59:00,
2013-03-23 12:00:00,9.0,3.0,30.26,North,10,6.0,7.0,76,0.00,,---,0.00,VWS V14.01,2013-03-23 18:00:00,
2013-03-23 12:01:00,9.0,3.0,30.27,North,355,6.0,10.0,76,0.00,,---,0.00,VWS V14.01,2013-03-23 18:01:00,
2013-03-23 12:02:00,8.9,2.9,30.27,NW,321,9.0,9.0,76,0.00,,---,0.00,VWS V14.01,2013-03-23 18:02:00,
2013-03-23 12:03:00,8.9,2.9,30.27,NW,324,1.0,9.0,76,0.00,,---,0.00,VWS V14.01,2013-03-23 18:03:00,
2013-03-23 12:04:00,8.9,2.9,30.27,NW,319,8.0,10.0,76,0.00,,---,0.00,VWS V14.01,2013-03-23 18:04:00,
2013-03-23 12:05:00,8.9,2.9,30.27,NW,324,1.0,9.0,76,0.00,,---,0.00,VWS V14.01,2013-03-23 18:05:00,
2013-03-23 12:06:00,8.9,3.2,30.27,NE,46,1.0,5.0,77,0.00,,---,0.00,VWS V14.01,2013-03-23 18:06:00,
2013-03-23 12:07:00,9.0,3.0,30.27,NE,46,0.0,1.0,76,0.00,,---,0.00,VWS V14.01,2013-03-23 18:07:00,
2013-03-23 12:08:00,9.0,3.0,30.28,NW,307,12.0,12.0,76,0.00,,---,0.00,VWS V14.01,2013-03-23 18:08:00,
2013-03-23 12:09:00,9.0,3.0,30.28,North,355,6.0,12.0,76,0.00,,---,0.00,VWS V14.01,2013-03-23 18:09:00,
2013-03-23 12:10:00,9.0,3.0,30.28,NW,322,6.0,12.0,76,0.00,,---,0.00,VWS V14.01,2013-03-23 18:10:00,
2013-03-23 12:11:00,9.1,3.1,30.28,NNW,328,4.0,7.0,76,0.00,,---,0.00,VWS V14.01,2013-03-23 18:11:00,
2013-03-23 12:12:00,9.1,3.4,30.28,NW,325,7.0,10.0,77,0.00,,---,0.00,VWS V14.01,2013-03-23 18:12:00,
2013-03-23 12:13:00,9.1,3.4,30.28,NW,320,2.0,11.0,77,0.00,,---,0.00,VWS V14.01,2013-03-23 18:13:00,
2013-03-23 12:14:00,9.1,3.1,30.28,West,278,7.0,7.0,76,0.00,,---,0.00,VWS V14.01,2013-03-23 18:14:00,
2013-03-23 12:15:00,9.1,3.4,30.28,NW,313,2.0,2.0,77,0.00,,---,0.00,VWS V14.01,2013-03-23 18:15:00,
2013-03-23 12:16:00,9.0,3.0,30.28,North,5,6.0,9.0,76,0.00,,---,0.00,VWS V14.01,2013-03-23 18:16:00,
2013-03-23 12:17:00,9.0,3.0,30.28,NNW,340,9.0,12.0,76,0.00,,---,0.00,VWS V14.01,2013-03-23 18:17:00,
2013-03-23 12:18:00,9.0,3.0,30.28,WNW,303,7.0,16.0,76,0.00,,---,0.00,VWS V14.01,2013-03-23 18:18:00,
2013-03-23 12:19:00,9.1,3.1,30.28,NW,305,7.0,9.0,76,0.00,,---,0.00,VWS V14.01,2013-03-23 18:19:00,
2013-03-23 12:20:00,9.0,3.0,30.28,NW,312,5.0,7.0,76,0.00,,---,0.00,VWS V14.01,2013-03-23 18:20:00,
2013-03-23 12:21:00,9.1,3.1,30.29,NW,311,4.0,5.0,76,0.00,,---,0.00,VWS V14.01,2013-03-23 18:21:00,
2013-03-23 12:22:00,9.1,3.1,30.29,NNW,344,8.0,8.0,76,0.00,,---,0.00,VWS V14.01,2013-03-23 18:22:00,
2013-03-23 12:23:00,9.1,3.1,30.29,NNW,331,7.0,11.0,76,0.00,,---,0.00,VWS V14.01,2013-03-23 18:23:00,
2013-03-23 12:24:00,9.1,3.1,30.29,North,355,4.0,7.0,76,0.00,,---,0.00,VWS V14.01,2013-03-23 18:24:00,
2013-03-23 12:25:00,9.1,3.1,30.29,NNW,331,1.0,7.0,76,0.00,,---,0.00,VWS V14.01,2013-03-23 18:25:00,
2013-03-23 12:26:00,9.2,3.2,30.29,WNW,302,1.0,6.0,76,0.00,,---,0.00,VWS V14.01,2013-03-23 18:26:00,
2013-03-23 12:27:00,9.2,3.2,30.29,NW,311,6.0,8.0,76,0.00,,---,0.00,VWS V14.01,2013-03-23 18:27:00,
2013-03-23 12:28:00,9.2,2.9,30.29,NW,315,10.0,11.0,75,0.00,,---,0.00,VWS V14.01,2013-03-23 18:28:00,
2013-03-23 12:29:00,9.2,2.9,30.29,NNW,338,11.0,14.0,75,0.00,,---,0.00,VWS V14.01,2013-03-23 18:29:00,
2013-03-23 12:30:00,9.2,2.9,30.29,WNW,284,2.0,10.0,75,0.00,,---,0.00,VWS V14.01,2013-03-23 18:30:00,
2013-03-23 12:31:00,9.2,2.6,30.29,NW,321,5.0,12.0,74,0.00,,---,0.00,VWS V14.01,2013-03-23 18:31:00,
2013-03-23 12:32:00,9.1,2.5,30.29,North,5,1.0,7.0,74,0.00,,---,0.00,VWS V14.01,2013-03-23 18:32:00,
2013-03-23 12:33:00,9.1,2.5,30.30,NNW,335,5.0,5.0,74,0.00,,---,0.00,VWS V14.01,2013-03-23 18:33:00,
2013-03-23 12:34:00,9.1,2.5,30.30,WNW,282,6.0,10.0,74,0.00,,---,0.00,VWS V14.01,2013-03-23 18:34:00,
2013-03-23 12:35:00,9.1,2.5,30.30,NW,320,4.0,7.0,74,0.00,,---,0.00,VWS V14.01,2013-03-23 18:35:00,
2013-03-23 12:36:00,9.1,2.5,30.30,WNW,292,4.0,6.0,74,0.00,,---,0.00,VWS V14.01,2013-03-23 18:36:00,
2013-03-23 12:37:00,9.1,2.5,30.30,NNW,327,7.0,16.0,74,0.00,,---,0.00,VWS V14.01,2013-03-23 18:37:00,
2013-03-23 12:38:00,9.1,2.5,30.30,WNW,295,5.0,7.0,74,0.00,,---,0.00,VWS V14.01,2013-03-23 18:38:00,
2013-03-23 12:39:00,9.1,2.5,30.30,NW,321,4.0,8.0,74,0.00,,---,0.00,VWS V14.01,2013-03-23 18:39:00,
2013-03-23 12:40:00,9.1,2.5,30.30,North,9,6.0,8.0,74,0.00,,---,0.00,VWS V14.01,2013-03-23 18:40:00,
2013-03-23 12:41:00,9.1,2.8,30.30,NW,320,0.0,1.0,75,0.00,,---,0.00,VWS V14.01,2013-03-23 18:41:00,
2013-03-23 12:42:00,9.2,2.9,30.30,NW,315,7.0,11.0,75,0.00,,---,0.00,VWS V14.01,2013-03-23 18:42:00,
2013-03-23 12:43:00,9.2,2.9,30.30,NW,313,4.0,9.0,75,0.00,,---,0.00,VWS V14.01,2013-03-23 18:43:00,
2013-03-23 12:44:00,9.2,2.6,30.30,WNW,290,9.0,14.0,74,0.00,,---,0.00,VWS V14.01,2013-03-23 18:44:00,
2013-03-23 12:45:00,9.2,2.6,30.30,NW,323,2.0,4.0,74,0.00,,---,0.00,VWS V14.01,2013-03-23 18:45:00,
2013-03-23 12:46:00,9.1,2.5,30.30,NW,321,2.0,8.0,74,0.00,,---,0.00,VWS V14.01,2013-03-23 18:46:00,
2013-03-23 12:47:00,9.2,2.6,30.30,NW,310,1.0,3.0,74,0.00,,---,0.00,VWS V14.01,2013-03-23 18:47:00,
2013-03-23 12:48:00,9.1,2.5,30.30,WNW,301,1.0,1.0,74,0.00,,---,0.00,VWS V14.01,2013-03-23 18:48:00,
2013-03-23 12:49:00,9.2,2.6,30.31,NW,317,9.0,9.0,74,0.00,,---,0.00,VWS V14.01,2013-03-23 18:49:00,
2013-03-23 12:50:00,9.2,2.6,30.30,West,276,9.0,9.0,74,0.00,,---,0.00,VWS V14.01,2013-03-23 18:50:00,
2013-03-23 12:51:00,9.2,2.9,30.31,West,269,4.0,6.0,75,0.00,,---,0.00,VWS V14.01,2013-03-23 18:51:00,
2013-03-23 12:52:00,9.3,2.7,30.31,WNW,290,5.0,8.0,74,0.00,,---,0.00,VWS V14.01,2013-03-23 18:52:00,
2013-03-23 12:53:00,9.4,2.8,30.31,NNW,343,4.0,8.0,74,0.00,,---,0.00,VWS V14.01,2013-03-23 18:53:00,
2013-03-23 12:54:00,9.4,2.8,30.31,NW,313,4.0,10.0,74,0.00,,---,0.00,VWS V14.01,2013-03-23 18:54:00,
2013-03-23 12:55:00,9.3,2.7,30.31,North,349,6.0,10.0,74,0.00,,---,0.00,VWS V14.01,2013-03-23 18:55:00,
2013-03-23 12:56:00,9.4,2.8,30.31,NNW,334,2.0,7.0,74,0.00,,---,0.00,VWS V14.01,2013-03-23 18:56:00,
2013-03-23 12:57:00,9.5,2.9,30.31,NNW,332,4.0,9.0,74,0.00,,---,0.00,VWS V14.01,2013-03-23 18:57:00,
2013-03-23 12:58:00,9.5,2.9,30.31,NNW,334,0.0,4.0,74,0.00,,---,0.00,VWS V14.01,2013-03-23 18:58:00,
2013-03-23 12:59:00,9.5,3.2,30.31,WNW,295,8.0,9.0,75,0.00,,---,0.00,VWS V14.01,2013-03-23 18:59:00,
2013-03-23 13:00:00,9.5,2.9,30.31,NNW,329,5.0,6.0,74,0.00,,---,0.00,VWS V14.01,2013-03-23 19:00:00,
2013-03-23 13:01:00,9.6,3.0,30.31,North,11,1.0,5.0,74,0.00,,---,0.00,VWS V14.01,2013-03-23 19:01:00,
2013-03-23 13:02:00,9.6,3.0,30.31,NW,324,6.0,6.0,74,0.00,,---,0.00,VWS V14.01,2013-03-23 19:02:00,
2013-03-23 13:03:00,9.7,3.1,30.32,NNW,333,4.0,9.0,74,0.00,,---,0.00,VWS V14.01,2013-03-23 19:03:00,
2013-03-23 13:04:00,9.7,3.1,30.31,WNW,285,1.0,11.0,74,0.00,,---,0.00,VWS V14.01,2013-03-23 19:04:00,
2013-03-23 13:05:00,9.7,3.1,30.32,NW,316,4.0,11.0,74,0.00,,---,0.00,VWS V14.01,2013-03-23 19:05:00,
2013-03-23 13:06:00,9.8,3.2,30.31,NW,324,1.0,5.0,74,0.00,,---,0.00,VWS V14.01,2013-03-23 19:06:00,
2013-03-23 13:07:00,9.8,3.2,30.32,NW,309,4.0,4.0,74,0.00,,---,0.00,VWS V14.01,2013-03-23 19:07:00,
2013-03-23 13:08:00,9.8,3.2,30.32,NNW,340,5.0,8.0,74,0.00,,---,0.00,VWS V14.01,2013-03-23 19:08:00,
2013-03-23 13:09:00,9.8,2.9,30.32,North,355,8.0,8.0,73,0.00,,---,0.00,VWS V14.01,2013-03-23 19:09:00,
2013-03-23 13:10:00,9.8,3.2,30.32,NW,309,6.0,6.0,74,0.00,,---,0.00,VWS V14.01,2013-03-23 19:10:00,
2013-03-23 13:11:00,9.8,3.2,30.32,NW,322,2.0,4.0,74,0.00,,---,0.00,VWS V14.01,2013-03-23 19:11:00,
2013-03-23 13:12:00,9.8,3.2,30.32,NW,319,5.0,5.0,74,0.00,,---,0.00,VWS V14.01,2013-03-23 19:12:00,
2013-03-23 13:13:00,9.9,3.3,30.32,NNE,30,8.0,9.0,74,0.00,,---,0.00,VWS V14.01,2013-03-23 19:13:00,
2013-03-23 13:14:00,9.9,3.3,30.32,NNW,346,7.0,9.0,74,0.00,,---,0.00,VWS V14.01,2013-03-23 19:14:00,
2013-03-23 13:15:00,9.9,3.6,30.32,NW,325,6.0,8.0,75,0.00,,---,0.00,VWS V14.01,2013-03-23 19:15:00,
2013-03-23 13:16:00,10.0,3.4,30.32,NNW,342,3.0,10.0,74,0.00,,---,0.00,VWS V14.01,2013-03-23 19:16:00,
2013-03-23 13:17:00,10.0,3.4,30.32,WNW,300,0.0,8.0,74,0.00,,---,0.00,VWS V14.01,2013-03-23 19:17:00,
2013-03-23 13:18:00,10.0,3.4,30.32,NNW,333,7.0,8.0,74,0.00,,---,0.00,VWS V14.01,2013-03-23 19:18:00,
2013-03-23 13:19:00,10.0,3.4,30.33,NW,308,12.0,12.0,74,0.00,,---,0.00,VWS V14.01,2013-03-23 19:19:00,
2013-03-23 13:20:00,10.0,3.4,30.32,North,11,2.0,7.0,74,0.00,,---,0.00,VWS V14.01,2013-03-23 19:20:00,
2013-03-23 13:21:00,10.0,3.1,30.32,NNE,23,4.0,6.0,73,0.00,,---,0.00,VWS V14.01,2013-03-23 19:21:00,
2013-03-23 13:22:00,10.0,3.1,30.33,NNE,30,6.0,7.0,73,0.00,,---,0.00,VWS V14.01,2013-03-23 19:22:00,
2013-03-23 13:23:00,10.0,3.1,30.33,WNW,300,0.0,6.0,73,0.00,,---,0.00,VWS V14.01,2013-03-23 19:23:00,
2013-03-23 13:24:00,10.0,3.1,30.33,NW,315,4.0,9.0,73,0.00,,---,0.00,VWS V14.01,2013-03-23 19:24:00,
2013-03-23 13:25:00,10.0,3.1,30.33,NNW,336,8.0,8.0,73,0.00,,---,0.00,VWS V14.01,2013-03-23 19:25:00,
2013-03-23 13:26:00,10.0,3.1,30.33,NW,315,4.0,6.0,73,0.00,,---,0.00,VWS V14.01,2013-03-23 19:26:00,
2013-03-23 13:27:00,10.0,3.1,30.33,NW,315,4.0,0.0,73,0.00,,---,0.00,VWS V14.01,2013-03-23 19:27:00,
2013-03-23 13:28:00,10.1,3.5,30.33,North,0,4.0,8.0,74,0.00,,---,0.00,VWS V14.01,2013-03-23 19:28:00,
2013-03-23 13:29:00,10.2,3.6,30.33,NW,315,4.0,6.0,74,0.00,,---,0.00,VWS V14.01,2013-03-23 19:29:00,
2013-03-23 13:30:00,10.3,3.7,30.33,North,0,2.0,5.0,74,0.00,,---,0.00,VWS V14.01,2013-03-23 19:30:00,
2013-03-23 13:31:00,10.3,3.7,30.33,ENE,68,3.0,5.0,74,0.00,,---,0.00,VWS V14.01,2013-03-23 19:31:00,
2013-03-23 13:32:00,10.4,4.1,30.33,North,0,2.0,6.0,75,0.00,,---,0.00,VWS V14.01,2013-03-23 19:32:00,
2013-03-23 13:33:00,10.5,4.2,30.33,North,0,3.0,6.0,75,0.00,,---,0.00,VWS V14.01,2013-03-23 19:33:00,
2013-03-23 13:34:00,10.5,3.9,30.33,NNW,338,3.0,6.0,74,0.00,,---,0.00,VWS V14.01,2013-03-23 19:34:00,
2013-03-23 13:35:00,10.6,4.0,30.33,North,0,3.0,8.0,74,0.00,,---,0.00,VWS V14.01,2013-03-23 19:35:00,
2013-03-23 13:36:00,10.7,4.1,30.33,NNW,338,7.0,14.0,74,0.00,,---,0.00,VWS V14.01,2013-03-23 19:36:00,
2013-03-23 13:37:00,10.7,3.8,30.33,WNW,292,1.0,6.0,73,0.00,,---,0.00,VWS V14.01,2013-03-23 19:37:00,
2013-03-23 13:38:00,10.7,3.5,30.33,NNW,338,4.0,11.0,72,0.00,,---,0.00,VWS V14.01,2013-03-23 19:38:00,
2013-03-23 13:39:00,10.7,3.5,30.33,NNW,338,7.0,10.0,72,0.00,,---,0.00,VWS V14.01,2013-03-23 19:39:00,
2013-03-23 13:40:00,10.7,3.8,30.33,North,0,4.0,7.0,73,0.00,,---,0.00,VWS V14.01,2013-03-23 19:40:00,
2013-03-23 13:41:00,10.7,3.8,30.33,NW,315,4.0,8.0,73,0.00,,---,0.00,VWS V14.01,2013-03-23 19:41:00,
2013-03-23 13:42:00,10.7,3.8,30.33,North,0,1.0,2.0,73,0.00,,---,0.00,VWS V14.01,2013-03-23 19:42:00,
2013-03-23 13:43:00,10.7,3.8,30.33,WNW,292,4.0,6.0,73,0.00,,---,0.00,VWS V14.01,2013-03-23 19:43:00,
2013-03-23 13:44:00,10.8,4.2,30.33,NNW,338,5.0,10.0,74,0.00,,---,0.00,VWS V14.01,2013-03-23 19:44:00,
2013-03-23 13:45:00,10.8,4.2,30.33,NNW,338,8.0,13.0,74,0.00,,---,0.00,VWS V14.01,2013-03-23 19:45:00,
2013-03-23 13:46:00,10.8,3.9,30.33,NW,315,5.0,10.0,73,0.00,,---,0.00,VWS V14.01,2013-03-23 19:46:00,
2013-03-23 13:47:00,10.8,3.9,30.33,NW,315,5.0,9.0,73,0.00,,---,0.00,VWS V14.01,2013-03-23 19:47:00,
2013-03-23 13:48:00,10.8,3.9,30.33,North,0,3.0,6.0,73,0.00,,---,0.00,VWS V14.01,2013-03-23 19:48:00,
2013-03-23 13:49:00,10.8,3.9,30.33,NNW,338,1.0,3.0,73,0.00,,---,0.00,VWS V14.01,2013-03-23 19:49:00,
2013-03-23 13:50:00,10.8,3.9,30.33,NNW,338,2.0,5.0,73,0.00,,---,0.00,VWS V14.01,2013-03-23 19:50:00,
2013-03-23 13:51:00,10.8,4.2,30.33,NNE,22,5.0,11.0,74,0.00,,---,0.00,VWS V14.01,2013-03-23 19:51:00,
2013-03-23 13:52:00,10.8,4.2,30.33,NW,315,5.0,9.0,74,0.00,,---,0.00,VWS V14.01,2013-03-23 19:52:00,
2013-03-23 13:53:00,10.8,3.9,30.33,NNW,338,6.0,10.0,73,0.00,,---,0.00,VWS V14.01,2013-03-23 19:53:00,
2013-03-23 13:54:00,10.8,3.9,30.33,NNW,338,3.0,9.0,73,0.00,,---,0.00,VWS V14.01,2013-03-23 19:54:00,
2013-03-23 13:55:00,10.8,3.6,30.33,North,0,2.0,11.0,72,0.00,,---,0.00,VWS V14.01,2013-03-23 19:55:00,
2013-03-23 13:56:00,10.8,3.6,30.33,NW,315,7.0,10.0,72,0.00,,---,0.00,VWS V14.01,2013-03-23 19:56:00,
2013-03-23 13:57:00,10.8,3.6,30.33,NNW,338,3.0,6.0,72,0.00,,---,0.00,VWS V14.01,2013-03-23 19:57:00,
2013-03-23 13:58:00,10.8,3.9,30.33,East,90,2.0,5.0,73,0.00,,---,0.00,VWS V14.01,2013-03-23 19:58:00,
2013-03-23 13:59:00,10.9,4.0,30.33,East,90,1.0,5.0,73,0.00,,---,0.00,VWS V14.01,2013-03-23 19:59:00,
2013-03-23 14:00:00,10.9,4.0,30.33,NNE,22,5.0,10.0,73,0.00,,---,0.00,VWS V14.01,2013-03-23 20:00:00,
2013-03-23 14:01:00,10.9,3.7,30.33,NNW,338,4.0,7.0,72,0.00,,---,0.00,VWS V14.01,2013-03-23 20:01:00,
2013-03-23 14:02:00,10.9,3.7,30.33,NW,315,1.0,4.0,72,0.00,,---,0.00,VWS V14.01,2013-03-23 20:02:00,
2013-03-23 14:03:00,10.9,3.7,30.33,North,0,2.0,4.0,72,0.00,,---,0.00,VWS V14.01,2013-03-23 20:03:00,
2013-03-23 14:04:00,10.9,3.7,30.33,North,0,2.0,4.0,72,0.00,,---,0.00,VWS V14.01,2013-03-23 20:04:00,
2013-03-23 14:05:00,10.8,3.6,30.33,North,0,2.0,5.0,72,0.00,,---,0.00,VWS V14.01,2013-03-23 20:05:00,
2013-03-23 14:06:00,10.8,3.6,30.33,NNW,338,2.0,7.0,72,0.00,,---,0.00,VWS V14.01,2013-03-23 20:06:00,
2013-03-23 14:07:00,10.8,3.9,30.33,NNW,338,1.0,4.0,73,0.00,,---,0.00,VWS V14.01,2013-03-23 20:07:00,
2013-03-23 14:08:00,10.8,4.2,30.33,NNW,338,3.0,8.0,74,0.00,,---,0.00,VWS V14.01,2013-03-23 20:08:00,
2013-03-23 14:09:00,10.9,4.2,30.33,NE,45,2.0,6.0,74,0.00,,---,0.00,VWS V14.01,2013-03-23 20:09:00,
2013-03-23 14:10:00,10.9,4.2,30.33,NNW,338,4.0,7.0,74,0.00,,---,0.00,VWS V14.01,2013-03-23 20:10:00,
2013-03-23 14:11:00,10.9,4.0,30.33,NNW,338,5.0,9.0,73,0.00,,---,0.00,VWS V14.01,2013-03-23 20:11:00,
2013-03-23 14:12:00,10.9,4.0,30.33,NNW,338,2.0,5.0,73,0.00,,---,0.00,VWS V14.01,2013-03-23 20:12:00,
2013-03-23 14:13:00,11.0,4.3,30.33,NW,315,3.0,6.0,74,0.00,,---,0.00,VWS V14.01,2013-03-23 20:13:00,
2013-03-23 14:14:00,11.0,4.3,30.33,NNW,338,4.0,8.0,74,0.00,,---,0.00,VWS V14.01,2013-03-23 20:14:00,
2013-03-23 14:22:00,11.4,4.1,30.33,NW,317,4.0,5.0,72,0.00,,---,0.00,VWS V14.01,2013-03-23 20:22:00,
2013-03-23 14:23:00,11.4,3.8,30.33,North,11,2.0,5.0,71,0.00,,---,0.00,VWS V14.01,2013-03-23 20:23:00,
2013-03-23 14:24:00,11.3,3.7,30.33,NNW,338,5.0,8.0,71,0.00,,---,0.00,VWS V14.01,2013-03-23 20:24:00,
2013-03-23 14:25:00,11.5,4.2,30.33,NNE,20,3.0,10.0,72,0.00,,---,0.00,VWS V14.01,2013-03-23 20:25:00,
2013-03-23 14:26:00,11.5,4.2,30.33,WNW,297,5.0,6.0,72,0.00,,---,0.00,VWS V14.01,2013-03-23 20:26:00,
2013-03-23 14:27:00,11.6,4.3,30.33,WNW,296,2.0,5.0,72,0.00,,---,0.00,VWS V14.01,2013-03-23 20:27:00,
2013-03-23 14:28:00,11.6,4.3,30.34,NNE,19,0.0,8.0,72,0.00,,---,0.00,VWS V14.01,2013-03-23 20:28:00,
2013-03-23 14:29:00,11.6,4.3,30.34,NNW,331,5.0,5.0,72,0.00,,---,0.00,VWS V14.01,2013-03-23 20:29:00,
2013-03-23 14:34:00,11.9,4.6,30.33,North,5,0.0,3.0,72,0.00,,---,0.00,VWS V14.01,2013-03-23 20:34:00,
2013-03-23 14:39:00,11.8,4.5,30.34,NW,304,4.0,4.0,72,0.00,,---,0.00,VWS V14.01,2013-03-23 20:39:00,
2013-03-23 14:44:00,12.4,4.8,30.34,North,5,6.0,6.0,71,0.00,,---,0.00,VWS V14.01,2013-03-23 20:44:00,
2013-03-23 14:49:00,12.3,5.0,30.34,NNW,344,6.0,7.0,72,0.00,,---,0.00,VWS V14.01,2013-03-23 20:49:00,
2013-03-23 14:54:00,12.1,4.8,30.34,NNE,26,0.0,0.0,72,0.00,,---,0.00,VWS V14.01,2013-03-23 20:54:00,
2013-03-23 14:59:00,11.8,4.5,30.35,North,360,3.0,5.0,72,0.00,,---,0.00,VWS V14.01,2013-03-23 20:59:00,
2013-03-23 15:04:00,11.4,4.4,30.35,North,350,5.0,8.0,73,0.00,,---,0.00,VWS V14.01,2013-03-23 21:04:00,
2013-03-23 15:09:00,11.2,4.2,30.35,NNW,333,3.0,8.0,73,0.00,,---,0.00,VWS V14.01,2013-03-23 21:09:00,
2013-03-23 15:14:00,11.0,3.8,30.35,WNW,293,0.0,1.0,72,0.00,,---,0.00,VWS V14.01,2013-03-23 21:14:00,
2013-03-23 15:19:00,11.0,3.8,30.36,WNW,296,4.0,9.0,72,0.00,,---,0.00,VWS V14.01,2013-03-23 21:19:00,
2013-03-23 15:24:00,10.9,3.7,30.36,NNW,327,11.0,11.0,72,0.00,,---,0.00,VWS V14.01,2013-03-23 21:24:00,
2013-03-23 15:29:00,10.8,3.3,30.37,NNW,331,9.0,11.0,71,0.00,,---,0.00,VWS V14.01,2013-03-23 21:29:00,
2013-03-23 15:34:00,10.6,3.4,30.37,NNW,337,1.0,2.0,72,0.00,,---,0.00,VWS V14.01,2013-03-23 21:34:00,
2013-03-23 15:39:00,10.5,3.3,30.37,NW,318,8.0,9.0,72,0.00,,---,0.00,VWS V14.01,2013-03-23 21:39:00,
2013-03-23 15:44:00,10.6,3.7,30.37,NW,320,8.0,8.0,73,0.00,,---,0.00,VWS V14.01,2013-03-23 21:44:00,
2013-03-23 15:49:00,10.5,3.6,30.38,North,5,4.0,10.0,73,0.00,,---,0.00,VWS V14.01,2013-03-23 21:49:00,
2013-03-23 15:54:00,10.5,3.9,30.38,NW,322,5.0,7.0,74,0.00,,---,0.00,VWS V14.01,2013-03-23 21:54:00,
2013-03-23 15:59:00,10.6,3.7,30.38,NW,309,0.0,3.0,73,0.00,,---,0.00,VWS V14.01,2013-03-23 21:59:00,
2013-03-23 16:05:00,10.7,3.8,30.38,NNW,336,2.0,3.0,73,0.00,,---,0.00,VWS V14.01,2013-03-23 22:05:00,
2013-03-23 16:10:00,10.7,3.8,30.39,NNW,331,3.0,8.0,73,0.00,,---,0.00,VWS V14.01,2013-03-23 22:10:00,
2013-03-23 16:15:00,10.7,3.8,30.39,NNW,346,2.0,7.0,73,0.00,,---,0.00,VWS V14.01,2013-03-23 22:15:00,
2013-03-23 16:20:00,10.8,4.2,30.39,NW,325,5.0,8.0,74,0.00,,---,0.00,VWS V14.01,2013-03-23 22:20:00,
2013-03-23 16:25:00,10.7,3.8,30.39,NW,311,4.0,10.0,73,0.00,,---,0.00,VWS V14.01,2013-03-23 22:25:00,
2013-03-23 16:30:00,10.5,3.3,30.40,North,355,3.0,9.0,72,0.00,,---,0.00,VWS V14.01,2013-03-23 22:30:00,
2013-03-23 16:35:00,10.5,3.6,30.40,North,351,5.0,5.0,73,0.00,,---,0.00,VWS V14.01,2013-03-23 22:35:00,
2013-03-23 16:40:00,10.5,3.3,30.40,North,10,6.0,6.0,72,0.00,,---,0.00,VWS V14.01,2013-03-23 22:40:00,
2013-03-23 16:45:00,10.7,3.8,30.41,North,355,6.0,10.0,73,0.00,,---,0.00,VWS V14.01,2013-03-23 22:45:00,
2013-03-23 16:50:00,10.7,3.8,30.41,North,350,1.0,2.0,73,0.00,,---,0.00,VWS V14.01,2013-03-23 22:50:00,
2013-03-23 16:55:00,10.7,4.3,30.41,North,360,3.0,4.0,75,0.00,,---,0.00,VWS V14.01,2013-03-23 22:55:00,
2013-03-23 17:00:00,10.7,4.1,30.42,NNW,348,0.0,1.0,74,0.00,,---,0.00,VWS V14.01,2013-03-23 23:00:00,
2013-03-23 17:05:00,10.5,3.6,30.42,NNW,343,1.0,3.0,73,0.00,,---,0.00,VWS V14.01,2013-03-23 23:05:00,
2013-03-23 17:10:00,10.3,3.7,30.42,NNW,344,11.0,11.0,74,0.00,,---,0.00,VWS V14.01,2013-03-23 23:10:00,
2013-03-23 17:15:00,10.1,3.8,30.42,WNW,302,4.0,7.0,75,0.00,,---,0.00,VWS V14.01,2013-03-23 23:15:00,
2013-03-23 17:20:00,9.8,3.2,30.43,NNW,346,4.0,5.0,74,0.00,,---,0.00,VWS V14.01,2013-03-23 23:20:00,
2013-03-23 17:25:00,9.5,2.9,30.43,NW,321,8.0,8.0,74,0.00,,---,0.00,VWS V14.01,2013-03-23 23:25:00,
2013-03-23 17:30:00,9.4,3.1,30.43,NNW,335,8.0,9.0,75,0.00,,---,0.00,VWS V14.01,2013-03-23 23:30:00,
2013-03-23 17:35:00,9.1,2.5,30.43,NNW,346,0.0,5.0,74,0.00,,---,0.00,VWS V14.01,2013-03-23 23:35:00,
2013-03-23 17:40:00,8.7,2.1,30.43,North,355,6.0,9.0,74,0.00,,---,0.00,VWS V14.01,2013-03-23 23:40:00,
2013-03-23 17:45:00,8.4,1.8,30.43,North,355,1.0,6.0,74,0.00,,---,0.00,VWS V14.01,2013-03-23 23:45:00,
2013-03-23 17:50:00,8.2,1.9,30.43,NW,321,1.0,7.0,75,0.00,,---,0.00,VWS V14.01,2013-03-23 23:50:00,
2013-03-23 17:56:00,8.1,1.5,30.44,NW,315,6.0,8.0,74,0.00,,---,0.00,VWS V14.01,2013-03-23 23:56:00,
2013-03-23 18:01:00,8.0,1.7,30.44,NNW,341,6.0,8.0,75,0.00,,---,0.00,VWS V14.01,2013-03-24 00:01:00,
2013-03-23 18:06:00,7.9,1.6,30.45,NNE,16,9.0,9.0,75,0.00,,---,0.00,VWS V14.01,2013-03-24 00:06:00,
2013-03-23 18:11:00,7.7,1.4,30.45,NNW,346,4.0,6.0,75,0.00,,---,0.00,VWS V14.01,2013-03-24 00:11:00,
2013-03-23 18:16:00,7.5,1.5,30.45,WNW,293,2.0,5.0,76,0.00,,---,0.00,VWS V14.01,2013-03-24 00:16:00,
2013-03-23 18:21:00,7.3,1.3,30.46,North,5,0.0,0.0,76,0.00,,---,0.00,VWS V14.01,2013-03-24 00:21:00,
2013-03-23 18:26:00,7.1,1.1,30.46,North,5,0.0,7.0,76,0.00,,---,0.00,VWS V14.01,2013-03-24 00:26:00,
2013-03-23 18:31:00,6.9,0.9,30.46,North,5,0.0,0.0,76,0.00,,---,0.00,VWS V14.01,2013-03-24 00:31:00,
2013-03-23 18:36:00,6.8,1.1,30.47,North,5,1.0,1.0,77,0.00,,---,0.00,VWS V14.01,2013-03-24 00:36:00,
2013-03-23 18:41:00,6.7,1.0,30.47,North,5,0.0,0.0,77,0.00,,---,0.00,VWS V14.01,2013-03-24 00:41:00,
2013-03-23 18:46:00,6.6,0.9,30.48,North,5,0.0,0.0,77,0.00,,---,0.00,VWS V14.01,2013-03-24 00:46:00,
2013-03-23 18:51:00,6.5,0.8,30.48,North,5,1.0,4.0,77,0.00,,---,0.00,VWS V14.01,2013-03-24 00:51:00,
2013-03-23 18:56:00,6.3,0.9,30.48,North,5,0.0,0.0,78,0.00,,---,0.00,VWS V14.01,2013-03-24 00:56:00,
2013-03-23 19:01:00,6.2,0.8,30.49,North,5,0.0,0.0,78,0.00,,---,0.00,VWS V14.01,2013-03-24 01:01:00,
2013-03-23 19:06:00,5.9,0.5,30.49,North,5,0.0,0.0,78,0.00,,---,0.00,VWS V14.01,2013-03-24 01:06:00,
2013-03-23 19:11:00,5.6,0.2,30.49,North,5,0.0,0.0,78,0.00,,---,0.00,VWS V14.01,2013-03-24 01:11:00,
2013-03-23 19:16:00,5.4,0.9,30.49,North,5,0.0,0.0,81,0.00,,---,0.00,VWS V14.01,2013-03-24 01:16:00,
2013-03-23 19:21:00,5.1,0.6,30.49,North,5,0.0,0.0,81,0.00,,---,0.00,VWS V14.01,2013-03-24 01:21:00,
2013-03-23 19:27:00,4.7,-0.1,30.49,North,5,0.0,1.0,80,0.00,,---,0.00,VWS V14.01,2013-03-24 01:27:00,
2013-03-23 19:32:00,4.4,-0.7,30.49,North,5,0.0,0.0,79,0.00,,---,0.00,VWS V14.01,2013-03-24 01:32:00,
2013-03-23 19:37:00,4.1,-0.7,30.49,North,5,0.0,0.0,80,0.00,,---,0.00,VWS V14.01,2013-03-24 01:37:00,
2013-03-23 19:42:00,3.8,-0.5,30.50,North,5,0.0,0.0,82,0.00,,---,0.00,VWS V14.01,2013-03-24 01:42:00,
2013-03-23 19:47:00,3.6,-0.6,30.50,North,5,0.0,0.0,82,0.00,,---,0.00,VWS V14.01,2013-03-24 01:47:00,
2013-03-23 19:52:00,3.4,-0.6,30.50,North,9,0.0,0.0,83,0.00,,---,0.00,VWS V14.01,2013-03-24 01:52:00,
2013-03-23 19:57:00,3.2,-0.8,30.50,North,9,0.0,0.0,83,0.00,,---,0.00,VWS V14.01,2013-03-24 01:57:00,
2013-03-23 20:02:00,2.9,-1.1,30.51,North,9,0.0,0.0,83,0.00,,---,0.00,VWS V14.01,2013-03-24 02:02:00,
2013-03-23 20:07:00,2.7,-1.5,30.51,North,9,0.0,0.0,82,0.00,,---,0.00,VWS V14.01,2013-03-24 02:07:00,
2013-03-23 20:12:00,2.5,-1.5,30.52,North,9,0.0,0.0,83,0.00,,---,0.00,VWS V14.01,2013-03-24 02:12:00,
2013-03-23 20:17:00,2.3,-1.7,30.52,North,9,0.0,0.0,83,0.00,,---,0.00,VWS V14.01,2013-03-24 02:17:00,
2013-03-23 20:22:00,2.3,-1.4,30.52,North,9,0.0,0.0,84,0.00,,---,0.00,VWS V14.01,2013-03-24 02:22:00,
2013-03-23 20:28:00,2.4,-1.1,30.52,North,9,0.0,0.0,85,0.00,,---,0.00,VWS V14.01,2013-03-24 02:28:00,
2013-03-23 20:32:00,2.4,-1.1,30.52,North,9,0.0,0.0,85,0.00,,---,0.00,VWS V14.01,2013-03-24 02:32:00,
2013-03-23 20:38:00,2.4,-1.1,30.53,North,9,0.0,0.0,85,0.00,,---,0.00,VWS V14.01,2013-03-24 02:38:00,
2013-03-23 20:43:00,2.4,-1.1,30.53,North,9,0.0,0.0,85,0.00,,---,0.00,VWS V14.01,2013-03-24 02:43:00,
2013-03-23 20:48:00,2.4,-1.1,30.53,North,9,0.0,0.0,85,0.00,,---,0.00,VWS V14.01,2013-03-24 02:48:00,
2013-03-23 20:53:00,2.3,-1.2,30.54,North,9,0.0,0.0,85,0.00,,---,0.00,VWS V14.01,2013-03-24 02:53:00,
2013-03-23 20:58:00,2.2,-1.5,30.54,North,9,1.0,1.0,84,0.00,,---,0.00,VWS V14.01,2013-03-24 02:58:00,
2013-03-23 21:03:00,2.2,-1.5,30.54,North,9,0.0,1.0,84,0.00,,---,0.00,VWS V14.01,2013-03-24 03:03:00,
2013-03-23 21:08:00,2.3,-1.2,30.55,North,9,1.0,2.0,85,0.00,,---,0.00,VWS V14.01,2013-03-24 03:08:00,
2013-03-23 21:13:00,2.4,-1.1,30.55,North,9,0.0,1.0,85,0.00,,---,0.00,VWS V14.01,2013-03-24 03:13:00,
2013-03-23 21:18:00,2.5,-1.0,30.56,North,9,0.0,0.0,85,0.00,,---,0.00,VWS V14.01,2013-03-24 03:18:00,
2013-03-23 21:23:00,2.5,-1.2,30.56,North,9,0.0,0.0,84,0.00,,---,0.00,VWS V14.01,2013-03-24 03:23:00,
2013-03-23 21:28:00,2.5,-1.2,30.56,North,9,0.0,0.0,84,0.00,,---,0.00,VWS V14.01,2013-03-24 03:28:00,
2013-03-23 21:33:00,2.5,-1.2,30.57,North,9,0.0,0.0,84,0.00,,---,0.00,VWS V14.01,2013-03-24 03:33:00,
2013-03-23 21:38:00,2.4,-1.3,30.57,North,9,0.0,0.0,84,0.00,,---,0.00,VWS V14.01,2013-03-24 03:38:00,
2013-03-23 21:43:00,2.4,-1.3,30.57,North,9,0.0,0.0,84,0.00,,---,0.00,VWS V14.01,2013-03-24 03:43:00,
2013-03-23 21:48:00,2.4,-1.3,30.57,North,9,0.0,0.0,84,0.00,,---,0.00,VWS V14.01,2013-03-24 03:48:00,
2013-03-23 21:53:00,2.4,-1.3,30.57,North,9,0.0,0.0,84,0.00,,---,0.00,VWS V14.01,2013-03-24 03:53:00,
2013-03-23 21:58:00,2.5,-1.0,30.58,North,9,0.0,0.0,85,0.00,,---,0.00,VWS V14.01,2013-03-24 03:58:00,
2013-03-23 22:00:00,2.5,-1.0,30.58,North,9,0.0,0.0,85,0.00,,---,0.00,VWS V14.01,2013-03-24 04:00:00,
2013-03-23 22:02:00,2.5,-1.0,30.58,North,9,0.0,0.0,85,0.00,,---,0.00,VWS V14.01,2013-03-24 04:02:00,
2013-03-23 22:07:00,2.6,-0.9,30.58,North,9,0.0,0.0,85,0.00,,---,0.00,VWS V14.01,2013-03-24 04:07:00,
2013-03-23 22:12:00,2.7,-0.8,30.58,North,9,0.0,0.0,85,0.00,,---,0.00,VWS V14.01,2013-03-24 04:12:00,
2013-03-23 22:17:00,2.7,-0.8,30.58,North,9,0.0,0.0,85,0.00,,---,0.00,VWS V14.01,2013-03-24 04:17:00,
2013-03-23 22:23:00,2.9,-0.6,30.58,North,9,0.0,0.0,85,0.00,,---,0.00,VWS V14.01,2013-03-24 04:23:00,
2013-03-23 22:28:00,2.9,-0.6,30.58,North,9,0.0,0.0,85,0.00,,---,0.00,VWS V14.01,2013-03-24 04:28:00,
2013-03-23 22:33:00,3.0,-0.5,30.58,North,9,0.0,0.0,85,0.00,,---,0.00,VWS V14.01,2013-03-24 04:33:00,
2013-03-23 22:38:00,3.1,-0.4,30.58,North,9,0.0,0.0,85,0.00,,---,0.00,VWS V14.01,2013-03-24 04:38:00,
2013-03-23 22:43:00,3.2,-0.3,30.58,North,9,0.0,0.0,85,0.00,,---,0.00,VWS V14.01,2013-03-24 04:43:00,
2013-03-23 22:48:00,3.2,-0.3,30.58,North,9,0.0,0.0,85,0.00,,---,0.00,VWS V14.01,2013-03-24 04:48:00,
2013-03-23 22:53:00,3.2,-0.5,30.58,North,9,0.0,0.0,84,0.00,,---,0.00,VWS V14.01,2013-03-24 04:53:00,
2013-03-23 22:58:00,3.2,-0.5,30.58,North,9,0.0,0.0,84,0.00,,---,0.00,VWS V14.01,2013-03-24 04:58:00,
2013-03-23 23:03:00,3.2,-0.5,30.58,North,9,0.0,0.0,84,0.00,,---,0.00,VWS V14.01,2013-03-24 05:03:00,
2013-03-23 23:08:00,3.2,-0.5,30.58,North,9,0.0,0.0,84,0.00,,---,0.00,VWS V14.01,2013-03-24 05:08:00,
2013-03-23 23:13:00,3.1,-0.6,30.58,North,9,0.0,0.0,84,0.00,,---,0.00,VWS V14.01,2013-03-24 05:13:00,
2013-03-23 23:18:00,3.0,-1.0,30.58,North,9,0.0,0.0,83,0.00,,---,0.00,VWS V14.01,2013-03-24 05:18:00,
2013-03-23 23:23:00,2.9,-1.1,30.58,North,9,0.0,0.0,83,0.00,,---,0.00,VWS V14.01,2013-03-24 05:23:00,
2013-03-23 23:28:00,2.6,-1.4,30.58,North,9,0.0,0.0,83,0.00,,---,0.00,VWS V14.01,2013-03-24 05:28:00,
2013-03-23 23:33:00,2.4,-1.6,30.58,North,9,0.0,0.0,83,0.00,,---,0.00,VWS V14.01,2013-03-24 05:33:00,
2013-03-23 23:38:00,2.4,-1.6,30.58,North,9,0.0,0.0,83,0.00,,---,0.00,VWS V14.01,2013-03-24 05:38:00,
2013-03-23 23:43:00,2.4,-1.6,30.59,North,9,0.0,0.0,83,0.00,,---,0.00,VWS V14.01,2013-03-24 05:43:00,
2013-03-23 23:48:00,2.4,-1.6,30.58,North,9,0.0,0.0,83,0.00,,---,0.00,VWS V14.01,2013-03-24 05:48:00,
2013-03-23 23:53:00,2.3,-1.7,30.59,North,9,0.0,0.0,83,0.00,,---,0.00,VWS V14.01,2013-03-24 05:53:00,
2013-03-23 23:58:00,2.2,-1.8,30.59,North,9,0.0,1.0,83,0.00,,---,0.00,VWS V14.01,2013-03-24 05:58:00,